Time,TemperatureF,DewpointF,PressureIn,WindDirection,WindDirectionDegrees,WindSpeedMPH,WindSpeedGustMPH,Humidity,HourlyPrecipIn,Conditions,Clouds,dailyrainin,SoftwareType,DateUTC
2013-05-26 00:00:00,43.3,41.1,30.25,NNW,347,0.0,0.0,92,0.00,CLR,,0.00,WeatherDisplay:10.37,2013-05-26 04:00:00,
2013-05-26 00:01:00,43.3,41.1,30.25,NNW,347,0.0,0.0,92,0.00,CLR,,0.00,WeatherDisplay:10.37,2013-05-26 04:01:00,
2013-05-26 00:06:00,43.3,41.1,30.25,NNW,347,0.0,0.0,92,0.00,CLR,,0.00,WeatherDisplay:10.37,2013-05-26 04:06:00,
2013-05-26 00:07:00,43.2,41.0,30.25,NNW,347,0.0,0.0,92,0.00,CLR,,0.00,WeatherDisplay:10.37,2013-05-26 04:07:00,
2013-05-26 00:11:00,43.1,40.9,30.25,NNW,347,0.0,0.0,92,0.00,CLR,,0.00,WeatherDisplay:10.37,2013-05-26 04:11:00,
2013-05-26 00:12:00,43.1,40.9,30.25,NNW,347,0.0,0.0,92,0.00,CLR,,0.00,WeatherDisplay:10.37,2013-05-26 04:12:00,
2013-05-26 00:16:00,42.8,40.6,30.25,NNW,347,0.0,0.0,92,0.00,CLR,,0.00,WeatherDisplay:10.37,2013-05-26 04:16:00,
2013-05-26 00:17:00,42.8,40.6,30.25,NNW,347,0.0,0.0,92,0.00,CLR,,0.00,WeatherDisplay:10.37,2013-05-26 04:17:00,
2013-05-26 00:21:00,42.6,40.4,30.25,NNW,347,0.0,0.0,92,0.00,CLR,,0.00,WeatherDisplay:10.37,2013-05-26 04:21:00,
2013-05-26 00:22:00,42.6,40.4,30.24,NNW,347,0.0,0.0,92,0.00,CLR,,0.00,WeatherDisplay:10.37,2013-05-26 04:22:00,
2013-05-26 00:26:00,42.5,40.3,30.25,NNW,347,0.0,0.0,92,0.00,CLR,,0.00,WeatherDisplay:10.37,2013-05-26 04:26:00,
2013-05-26 00:28:00,42.3,40.1,30.25,NNW,347,0.0,0.0,92,0.00,CLR,,0.00,WeatherDisplay:10.37,2013-05-26 04:28:00,
2013-05-26 00:31:00,42.2,40.0,30.25,NNW,347,0.0,0.0,92,0.00,CLR,,0.00,WeatherDisplay:10.37,2013-05-26 04:31:00,
2013-05-26 00:32:00,42.2,40.3,30.25,NNW,347,0.0,0.0,93,0.00,CLR,,0.00,WeatherDisplay:10.37,2013-05-26 04:32:00,
2013-05-26 00:33:00,42.2,40.3,30.25,NNW,347,0.0,0.0,93,0.00,CLR,,0.00,WeatherDisplay:10.37,2013-05-26 04:33:00,
2013-05-26 00:36:00,41.9,40.0,30.25,NNW,347,0.0,0.0,93,0.00,CLR,,0.00,WeatherDisplay:10.37,2013-05-26 04:36:00,
2013-05-26 00:37:00,41.9,40.0,30.25,NNW,347,0.0,0.0,93,0.00,CLR,,0.00,WeatherDisplay:10.37,2013-05-26 04:37:00,
2013-05-26 00:38:00,41.8,39.9,30.25,NNW,347,0.0,0.0,93,0.00,CLR,,0.00,WeatherDisplay:10.37,2013-05-26 04:38:00,
2013-05-26 00:41:00,41.6,39.7,30.25,NNW,347,0.0,0.0,93,0.00,CLR,,0.00,WeatherDisplay:10.37,2013-05-26 04:41:00,
2013-05-26 00:42:00,41.6,39.7,30.25,NNW,347,0.0,0.0,93,0.00,CLR,,0.00,WeatherDisplay:10.37,2013-05-26 04:42:00,
2013-05-26 00:44:00,41.6,39.7,30.25,NNW,347,0.0,0.0,93,0.00,CLR,,0.00,WeatherDisplay:10.37,2013-05-26 04:44:00,
2013-05-26 00:47:00,41.5,39.9,30.25,NNW,347,0.0,0.0,94,0.00,CLR,,0.00,WeatherDisplay:10.37,2013-05-26 04:47:00,
2013-05-26 00:49:00,41.5,39.9,30.25,NNW,347,0.0,0.0,94,0.00,CLR,,0.00,WeatherDisplay:10.37,2013-05-26 04:49:00,
2013-05-26 00:52:00,41.5,39.9,30.25,NNW,347,0.0,0.0,94,0.00,CLR,,0.00,WeatherDisplay:10.37,2013-05-26 04:52:00,
2013-05-26 00:53:00,41.3,39.7,30.25,NNW,347,0.0,0.0,94,0.00,CLR,,0.00,WeatherDisplay:10.37,2013-05-26 04:53:00,
2013-05-26 00:54:00,41.3,39.7,30.25,NNW,347,0.0,0.0,94,0.00,CLR,,0.00,WeatherDisplay:10.37,2013-05-26 04:54:00,
2013-05-26 00:57:00,41.2,39.6,30.25,NNW,347,0.0,0.0,94,0.00,CLR,,0.00,WeatherDisplay:10.37,2013-05-26 04:57:00,
2013-05-26 00:58:00,41.2,39.6,30.25,NNW,347,0.0,0.0,94,0.00,CLR,,0.00,WeatherDisplay:10.37,2013-05-26 04:58:00,
2013-05-26 00:59:00,41.2,39.6,30.25,NNW,347,0.0,0.0,94,0.00,CLR,,0.00,WeatherDisplay:10.37,2013-05-26 04:59:00,
2013-05-26 01:02:00,41.2,39.6,30.25,NNW,347,0.0,0.0,94,0.00,CLR,,0.00,WeatherDisplay:10.37,2013-05-26 05:02:00,
2013-05-26 01:03:00,41.2,39.6,30.25,NNW,347,0.0,0.0,94,0.00,CLR,,0.00,WeatherDisplay:10.37,2013-05-26 05:03:00,
2013-05-26 01:04:00,41.2,39.6,30.25,NNW,347,0.0,0.0,94,0.00,CLR,,0.00,WeatherDisplay:10.37,2013-05-26 05:04:00,
2013-05-26 01:08:00,41.1,39.5,30.25,NNW,347,0.0,0.0,94,0.00,CLR,,0.00,WeatherDisplay:10.37,2013-05-26 05:08:00,
2013-05-26 01:09:00,41.1,39.5,30.25,NNW,347,0.0,0.0,94,0.00,CLR,,0.00,WeatherDisplay:10.37,2013-05-26 05:09:00,
2013-05-26 01:13:00,40.9,39.3,30.25,NNW,347,0.0,0.0,94,0.00,CLR,,0.00,WeatherDisplay:10.37,2013-05-26 05:13:00,
2013-05-26 01:14:00,40.9,39.3,30.25,NNW,347,0.0,0.0,94,0.00,CLR,,0.00,WeatherDisplay:10.37,2013-05-26 05:14:00,
2013-05-26 01:18:00,40.6,39.0,30.25,NNW,347,0.0,0.0,94,0.00,CLR,,0.00,WeatherDisplay:10.37,2013-05-26 05:18:00,
2013-05-26 01:19:00,40.6,39.0,30.25,NNW,347,0.0,0.0,94,0.00,CLR,,0.00,WeatherDisplay:10.37,2013-05-26 05:19:00,
2013-05-26 01:20:00,40.6,39.0,30.25,NNW,347,0.0,0.0,94,0.00,CLR,,0.00,WeatherDisplay:10.37,2013-05-26 05:20:00,
2013-05-26 01:23:00,40.6,39.3,30.25,NNW,347,0.0,0.0,95,0.00,CLR,,0.00,WeatherDisplay:10.37,2013-05-26 05:23:00,
2013-05-26 01:24:00,40.6,39.0,30.25,NNW,347,0.0,0.0,94,0.00,CLR,,0.00,WeatherDisplay:10.37,2013-05-26 05:24:00,
2013-05-26 01:25:00,40.6,39.0,30.25,NNW,347,0.0,0.0,94,0.00,CLR,,0.00,WeatherDisplay:10.37,2013-05-26 05:25:00,
2013-05-26 01:28:00,40.5,39.2,30.25,NNW,347,0.0,0.0,95,0.00,CLR,,0.00,WeatherDisplay:10.37,2013-05-26 05:28:00,
2013-05-26 01:29:00,40.5,39.2,30.25,NNW,347,0.0,0.0,95,0.00,CLR,,0.00,WeatherDisplay:10.37,2013-05-26 05:29:00,
2013-05-26 01:30:00,40.5,39.2,30.25,NNW,347,0.0,0.0,95,0.00,CLR,,0.00,WeatherDisplay:10.37,2013-05-26 05:30:00,
2013-05-26 01:33:00,40.3,39.0,30.25,NNW,347,0.0,0.0,95,0.00,CLR,,0.00,WeatherDisplay:10.37,2013-05-26 05:33:00,
2013-05-26 01:34:00,40.3,39.0,30.25,NNW,347,0.0,0.0,95,0.00,CLR,,0.00,WeatherDisplay:10.37,2013-05-26 05:34:00,
2013-05-26 01:35:00,40.3,39.0,30.25,NNW,347,0.0,0.0,95,0.00,CLR,,0.00,WeatherDisplay:10.37,2013-05-26 05:35:00,
2013-05-26 01:38:00,40.1,38.8,30.25,NNW,347,0.0,0.0,95,0.00,CLR,,0.00,WeatherDisplay:10.37,2013-05-26 05:38:00,
2013-05-26 01:39:00,40.1,38.8,30.25,NNW,347,0.0,0.0,95,0.00,CLR,,0.00,WeatherDisplay:10.37,2013-05-26 05:39:00,
2013-05-26 01:40:00,40.1,38.8,30.25,NNW,347,0.0,0.0,95,0.00,CLR,,0.00,WeatherDisplay:10.37,2013-05-26 05:40:00,
2013-05-26 01:44:00,39.8,38.5,30.25,NNW,347,0.0,0.0,95,0.00,CLR,,0.00,WeatherDisplay:10.37,2013-05-26 05:44:00,
2013-05-26 01:45:00,39.8,38.5,30.25,NNW,347,0.0,0.0,95,0.00,CLR,,0.00,WeatherDisplay:10.37,2013-05-26 05:45:00,
2013-05-26 01:46:00,39.6,38.3,30.25,NNW,347,0.0,0.0,95,0.00,CLR,,0.00,WeatherDisplay:10.37,2013-05-26 05:46:00,
2013-05-26 01:49:00,39.6,38.3,30.25,NNW,347,0.0,0.0,95,0.00,CLR,,0.00,WeatherDisplay:10.37,2013-05-26 05:49:00,
2013-05-26 01:50:00,39.6,38.3,30.25,NNW,347,0.0,0.0,95,0.00,CLR,,0.00,WeatherDisplay:10.37,2013-05-26 05:50:00,
2013-05-26 01:51:00,39.5,38.2,30.25,NNW,347,0.0,0.0,95,0.00,CLR,,0.00,WeatherDisplay:10.37,2013-05-26 05:51:00,
2013-05-26 01:54:00,39.5,38.2,30.25,NNW,347,0.0,0.0,95,0.00,CLR,,0.00,WeatherDisplay:10.37,2013-05-26 05:54:00,
2013-05-26 01:55:00,39.5,38.2,30.25,NNW,347,0.0,0.0,95,0.00,CLR,,0.00,WeatherDisplay:10.37,2013-05-26 05:55:00,
2013-05-26 01:56:00,39.3,38.0,30.25,NNW,347,0.0,0.0,95,0.00,CLR,,0.00,WeatherDisplay:10.37,2013-05-26 05:56:00,
2013-05-26 01:59:00,39.2,37.9,30.25,NNW,347,0.0,0.0,95,0.00,CLR,,0.00,WeatherDisplay:10.37,2013-05-26 05:59:00,
2013-05-26 02:00:00,39.2,37.9,30.25,NNW,347,0.0,0.0,95,0.00,CLR,,0.00,WeatherDisplay:10.37,2013-05-26 06:00:00,
2013-05-26 02:01:00,39.2,37.9,30.25,NNW,347,0.0,0.0,95,0.00,CLR,,0.00,WeatherDisplay:10.37,2013-05-26 06:01:00,
2013-05-26 02:04:00,39.1,38.1,30.25,NNW,347,0.0,0.0,96,0.00,CLR,,0.00,WeatherDisplay:10.37,2013-05-26 06:04:00,
2013-05-26 02:05:00,39.1,38.1,30.25,NNW,347,0.0,0.0,96,0.00,CLR,,0.00,WeatherDisplay:10.37,2013-05-26 06:05:00,
2013-05-26 02:06:00,39.1,38.1,30.25,NNW,347,0.0,0.0,96,0.00,CLR,,0.00,WeatherDisplay:10.37,2013-05-26 06:06:00,
2013-05-26 02:09:00,39.1,38.1,30.25,NNW,347,0.0,0.0,96,0.00,CLR,,0.00,WeatherDisplay:10.37,2013-05-26 06:09:00,
2013-05-26 02:10:00,39.1,38.1,30.25,NNW,347,0.0,0.0,96,0.00,CLR,,0.00,WeatherDisplay:10.37,2013-05-26 06:10:00,
2013-05-26 02:11:00,38.9,37.9,30.25,NNW,347,0.0,0.0,96,0.00,CLR,,0.00,WeatherDisplay:10.37,2013-05-26 06:11:00,
2013-05-26 02:14:00,38.9,37.9,30.25,NNW,347,0.0,0.0,96,0.00,CLR,,0.00,WeatherDisplay:10.37,2013-05-26 06:14:00,
2013-05-26 02:15:00,38.9,37.9,30.25,NNW,347,0.0,0.0,96,0.00,CLR,,0.00,WeatherDisplay:10.37,2013-05-26 06:15:00,
2013-05-26 02:16:00,38.9,37.9,30.25,NNW,347,0.0,0.0,96,0.00,CLR,,0.00,WeatherDisplay:10.37,2013-05-26 06:16:00,
2013-05-26 02:17:00,38.8,37.8,30.25,NNW,347,0.0,0.0,96,0.00,CLR,,0.00,WeatherDisplay:10.37,2013-05-26 06:17:00,
2013-05-26 02:20:00,38.8,37.8,30.25,NNW,347,0.0,0.0,96,0.00,CLR,,0.00,WeatherDisplay:10.37,2013-05-26 06:20:00,
2013-05-26 02:21:00,38.8,37.8,30.25,NNW,347,0.0,0.0,96,0.00,CLR,,0.00,WeatherDisplay:10.37,2013-05-26 06:21:00,
2013-05-26 02:22:00,38.8,37.8,30.25,NNW,347,0.0,0.0,96,0.00,CLR,,0.00,WeatherDisplay:10.37,2013-05-26 06:22:00,
2013-05-26 02:25:00,38.9,37.9,30.25,NNW,347,0.0,0.0,96,0.00,CLR,,0.00,WeatherDisplay:10.37,2013-05-26 06:25:00,
2013-05-26 02:27:00,38.9,37.9,30.25,NNW,347,0.0,0.0,96,0.00,CLR,,0.00,WeatherDisplay:10.37,2013-05-26 06:27:00,
2013-05-26 02:30:00,38.9,37.9,30.25,NNW,347,0.0,0.0,96,0.00,CLR,,0.00,WeatherDisplay:10.37,2013-05-26 06:30:00,
2013-05-26 02:31:00,38.9,37.9,30.25,NNW,347,0.0,0.0,96,0.00,CLR,,0.00,WeatherDisplay:10.37,2013-05-26 06:31:00,
2013-05-26 02:32:00,38.9,37.9,30.25,NNW,347,0.0,0.0,96,0.00,CLR,,0.00,WeatherDisplay:10.37,2013-05-26 06:32:00,
2013-05-26 02:33:00,38.9,37.9,30.25,NNW,347,0.0,0.0,96,0.00,CLR,,0.00,WeatherDisplay:10.37,2013-05-26 06:33:00,
2013-05-26 02:36:00,38.9,37.9,30.25,NNW,347,0.0,0.0,96,0.00,CLR,,0.00,WeatherDisplay:10.37,2013-05-26 06:36:00,
2013-05-26 02:37:00,38.9,37.9,30.25,NNW,347,0.0,0.0,96,0.00,CLR,,0.00,WeatherDisplay:10.37,2013-05-26 06:37:00,
2013-05-26 02:38:00,39.1,38.1,30.25,NNW,347,0.0,0.0,96,0.00,CLR,,0.00,WeatherDisplay:10.37,2013-05-26 06:38:00,
2013-05-26 02:41:00,39.1,38.1,30.25,NNW,347,0.0,0.0,96,0.00,CLR,,0.00,WeatherDisplay:10.37,2013-05-26 06:41:00,
2013-05-26 02:42:00,39.1,38.1,30.25,NNW,347,0.0,0.0,96,0.00,CLR,,0.00,WeatherDisplay:10.37,2013-05-26 06:42:00,
2013-05-26 02:43:00,39.1,38.1,30.25,NNW,347,0.0,0.0,96,0.00,CLR,,0.00,WeatherDisplay:10.37,2013-05-26 06:43:00,
2013-05-26 02:46:00,39.2,38.2,30.25,NNW,347,0.0,0.0,96,0.00,CLR,,0.00,WeatherDisplay:10.37,2013-05-26 06:46:00,
2013-05-26 02:47:00,39.2,38.2,30.25,NNW,347,0.0,0.0,96,0.00,CLR,,0.00,WeatherDisplay:10.37,2013-05-26 06:47:00,
2013-05-26 02:48:00,39.2,38.2,30.25,NNW,347,0.0,0.0,96,0.00,CLR,,0.00,WeatherDisplay:10.37,2013-05-26 06:48:00,
2013-05-26 02:49:00,39.2,38.2,30.25,NNW,347,0.0,0.0,96,0.00,CLR,,0.00,WeatherDisplay:10.37,2013-05-26 06:49:00,
2013-05-26 02:52:00,39.2,38.2,30.24,NNW,347,0.0,0.0,96,0.00,CLR,,0.00,WeatherDisplay:10.37,2013-05-26 06:52:00,
2013-05-26 02:53:00,39.3,38.3,30.24,NNW,347,0.0,0.0,96,0.00,CLR,,0.00,WeatherDisplay:10.37,2013-05-26 06:53:00,
2013-05-26 02:54:00,39.3,38.3,30.24,NNW,347,0.0,0.0,96,0.00,CLR,,0.00,WeatherDisplay:10.37,2013-05-26 06:54:00,
2013-05-26 02:57:00,39.3,38.3,30.24,NNW,347,0.0,0.0,96,0.00,CLR,,0.00,WeatherDisplay:10.37,2013-05-26 06:57:00,
2013-05-26 02:58:00,39.3,38.3,30.24,NNW,347,0.0,0.0,96,0.00,CLR,,0.00,WeatherDisplay:10.37,2013-05-26 06:58:00,
2013-05-26 02:59:00,39.3,38.3,30.24,NNW,347,0.0,0.0,96,0.00,CLR,,0.00,WeatherDisplay:10.37,2013-05-26 06:59:00,
2013-05-26 03:02:00,39.5,38.5,30.24,NNW,347,0.0,0.0,96,0.00,CLR,,0.00,WeatherDisplay:10.37,2013-05-26 07:02:00,
2013-05-26 03:03:00,39.3,38.3,30.24,NNW,347,0.0,0.0,96,0.00,CLR,,0.00,WeatherDisplay:10.37,2013-05-26 07:03:00,
2013-05-26 03:04:00,39.3,38.3,30.24,NNW,347,0.0,0.0,96,0.00,CLR,,0.00,WeatherDisplay:10.37,2013-05-26 07:04:00,
2013-05-26 03:05:00,39.3,38.3,30.24,NNW,347,0.0,0.0,96,0.00,CLR,,0.00,WeatherDisplay:10.37,2013-05-26 07:05:00,
2013-05-26 03:07:00,39.5,38.5,30.24,NNW,347,0.0,0.0,96,0.00,CLR,,0.00,WeatherDisplay:10.37,2013-05-26 07:07:00,
2013-05-26 03:08:00,39.5,38.5,30.24,NNW,347,0.0,0.0,96,0.00,CLR,,0.00,WeatherDisplay:10.37,2013-05-26 07:08:00,
2013-05-26 03:09:00,39.5,38.5,30.24,NNW,347,0.0,0.0,96,0.00,CLR,,0.00,WeatherDisplay:10.37,2013-05-26 07:09:00,
2013-05-26 03:10:00,39.5,38.5,30.24,NNW,347,0.0,0.0,96,0.00,CLR,,0.00,WeatherDisplay:10.37,2013-05-26 07:10:00,
2013-05-26 03:13:00,39.5,38.5,30.24,NNW,347,0.0,0.0,96,0.00,CLR,,0.00,WeatherDisplay:10.37,2013-05-26 07:13:00,
2013-05-26 03:14:00,39.3,38.3,30.24,NNW,347,0.0,0.0,96,0.00,CLR,,0.00,WeatherDisplay:10.37,2013-05-26 07:14:00,
2013-05-26 03:15:00,39.3,38.3,30.24,NNW,347,0.0,0.0,96,0.00,CLR,,0.00,WeatherDisplay:10.37,2013-05-26 07:15:00,
2013-05-26 03:18:00,39.2,37.9,30.24,NNW,347,0.0,0.0,95,0.00,CLR,,0.00,WeatherDisplay:10.37,2013-05-26 07:18:00,
2013-05-26 03:19:00,39.2,37.9,30.24,NNW,347,0.0,0.0,95,0.00,CLR,,0.00,WeatherDisplay:10.37,2013-05-26 07:19:00,
2013-05-26 03:20:00,39.1,37.8,30.24,NNW,347,0.0,0.0,95,0.00,CLR,,0.00,WeatherDisplay:10.37,2013-05-26 07:20:00,
2013-05-26 03:23:00,39.1,37.8,30.24,NNW,347,0.0,0.0,95,0.00,CLR,,0.00,WeatherDisplay:10.37,2013-05-26 07:23:00,
2013-05-26 03:24:00,39.1,37.8,30.24,NNW,347,0.0,0.0,95,0.00,CLR,,0.00,WeatherDisplay:10.37,2013-05-26 07:24:00,
2013-05-26 03:25:00,38.9,37.9,30.24,NNW,347,0.0,0.0,96,0.00,CLR,,0.00,WeatherDisplay:10.37,2013-05-26 07:25:00,
2013-05-26 03:28:00,38.9,37.9,30.24,NNW,347,0.0,0.0,96,0.00,CLR,,0.00,WeatherDisplay:10.37,2013-05-26 07:28:00,
2013-05-26 03:29:00,38.9,37.9,30.24,NNW,347,0.0,0.0,96,0.00,CLR,,0.00,WeatherDisplay:10.37,2013-05-26 07:29:00,
2013-05-26 03:30:00,38.9,37.9,30.24,NNW,347,0.0,0.0,96,0.00,CLR,,0.00,WeatherDisplay:10.37,2013-05-26 07:30:00,
2013-05-26 03:31:00,38.9,37.9,30.24,NNW,347,0.0,0.0,96,0.00,CLR,,0.00,WeatherDisplay:10.37,2013-05-26 07:31:00,
2013-05-26 03:33:00,38.8,37.8,30.24,NNW,347,0.0,0.0,96,0.00,CLR,,0.00,WeatherDisplay:10.37,2013-05-26 07:33:00,
2013-05-26 03:34:00,38.8,37.8,30.24,NNW,347,0.0,0.0,96,0.00,CLR,,0.00,WeatherDisplay:10.37,2013-05-26 07:34:00,
2013-05-26 03:35:00,38.9,37.9,30.24,NNW,347,0.0,0.0,96,0.00,CLR,,0.00,WeatherDisplay:10.37,2013-05-26 07:35:00,
2013-05-26 03:37:00,38.9,37.9,30.24,NNW,347,0.0,0.0,96,0.00,CLR,,0.00,WeatherDisplay:10.37,2013-05-26 07:37:00,
2013-05-26 03:38:00,39.1,38.1,30.24,NNW,347,0.0,0.0,96,0.00,CLR,,0.00,WeatherDisplay:10.37,2013-05-26 07:38:00,
2013-05-26 03:39:00,39.1,38.1,30.24,NNW,347,0.0,0.0,96,0.00,CLR,,0.00,WeatherDisplay:10.37,2013-05-26 07:39:00,
2013-05-26 03:41:00,39.1,38.1,30.24,NNW,347,0.0,0.0,96,0.00,CLR,,0.00,WeatherDisplay:10.37,2013-05-26 07:41:00,
2013-05-26 03:42:00,39.2,38.2,30.24,NNW,347,0.0,0.0,96,0.00,CLR,,0.00,WeatherDisplay:10.37,2013-05-26 07:42:00,
2013-05-26 03:44:00,39.2,38.2,30.24,NNW,347,0.0,0.0,96,0.00,CLR,,0.00,WeatherDisplay:10.37,2013-05-26 07:44:00,
2013-05-26 03:46:00,39.1,38.1,30.24,NNW,347,0.0,0.0,96,0.00,CLR,,0.00,WeatherDisplay:10.37,2013-05-26 07:46:00,
2013-05-26 03:48:00,38.9,37.9,30.24,NNW,347,0.0,0.0,96,0.00,CLR,,0.00,WeatherDisplay:10.37,2013-05-26 07:48:00,
2013-05-26 03:49:00,38.9,37.9,30.23,NNW,347,0.0,0.0,96,0.00,CLR,,0.00,WeatherDisplay:10.37,2013-05-26 07:49:00,
2013-05-26 03:51:00,38.8,37.8,30.23,NNW,347,0.0,0.0,96,0.00,CLR,,0.00,WeatherDisplay:10.37,2013-05-26 07:51:00,
2013-05-26 03:53:00,38.8,37.8,30.24,NNW,347,0.0,0.0,96,0.00,CLR,,0.00,WeatherDisplay:10.37,2013-05-26 07:53:00,
2013-05-26 03:54:00,38.8,37.8,30.24,NNW,347,0.0,0.0,96,0.00,CLR,,0.00,WeatherDisplay:10.37,2013-05-26 07:54:00,
2013-05-26 03:56:00,38.6,37.6,30.24,NNW,347,0.0,0.0,96,0.00,CLR,,0.00,WeatherDisplay:10.37,2013-05-26 07:56:00,
2013-05-26 03:59:00,38.6,37.6,30.24,NNW,347,0.0,0.0,96,0.00,CLR,,0.00,WeatherDisplay:10.37,2013-05-26 07:59:00,
2013-05-26 04:00:00,38.6,37.6,30.24,NNW,347,0.0,0.0,96,0.00,CLR,,0.00,WeatherDisplay:10.37,2013-05-26 08:00:00,
2013-05-26 04:02:00,38.5,37.5,30.24,NNW,347,0.0,0.0,96,0.00,CLR,,0.00,WeatherDisplay:10.37,2013-05-26 08:02:00,
2013-05-26 04:04:00,38.3,37.3,30.24,NNW,347,0.0,0.0,96,0.00,CLR,,0.00,WeatherDisplay:10.37,2013-05-26 08:04:00,
2013-05-26 04:05:00,38.3,37.3,30.24,NNW,347,0.0,0.0,96,0.00,CLR,,0.00,WeatherDisplay:10.37,2013-05-26 08:05:00,
2013-05-26 04:07:00,38.3,37.3,30.24,NNW,347,0.0,0.0,96,0.00,CLR,,0.00,WeatherDisplay:10.37,2013-05-26 08:07:00,
2013-05-26 04:10:00,38.2,37.2,30.24,NNW,347,0.0,0.0,96,0.00,CLR,,0.00,WeatherDisplay:10.37,2013-05-26 08:10:00,
2013-05-26 04:12:00,38.2,37.2,30.24,NNW,347,0.0,0.0,96,0.00,CLR,,0.00,WeatherDisplay:10.37,2013-05-26 08:12:00,
2013-05-26 04:15:00,38.0,37.0,30.24,NNW,347,0.0,0.0,96,0.00,CLR,,0.00,WeatherDisplay:10.37,2013-05-26 08:15:00,
2013-05-26 04:18:00,38.0,37.0,30.24,NNW,347,0.0,0.0,96,0.00,CLR,,0.00,WeatherDisplay:10.37,2013-05-26 08:18:00,
2013-05-26 04:20:00,37.9,36.9,30.24,NNW,347,0.0,0.0,96,0.00,CLR,,0.00,WeatherDisplay:10.37,2013-05-26 08:20:00,
2013-05-26 04:21:00,37.9,36.9,30.24,NNW,347,0.0,0.0,96,0.00,CLR,,0.00,WeatherDisplay:10.37,2013-05-26 08:21:00,
2013-05-26 04:24:00,37.8,36.8,30.24,NNW,347,0.0,0.0,96,0.00,CLR,,0.00,WeatherDisplay:10.37,2013-05-26 08:24:00,
2013-05-26 04:25:00,37.6,36.6,30.24,NNW,347,0.0,0.0,96,0.00,CLR,,0.00,WeatherDisplay:10.37,2013-05-26 08:25:00,
2013-05-26 04:26:00,37.6,36.6,30.24,NNW,347,0.0,0.0,96,0.00,CLR,,0.00,WeatherDisplay:10.37,2013-05-26 08:26:00,
2013-05-26 04:29:00,37.5,36.5,30.24,NNW,347,0.0,0.0,96,0.00,CLR,,0.00,WeatherDisplay:10.37,2013-05-26 08:29:00,
2013-05-26 04:30:00,37.5,36.5,30.24,NNW,347,0.0,0.0,96,0.00,CLR,,0.00,WeatherDisplay:10.37,2013-05-26 08:30:00,
2013-05-26 04:31:00,37.5,36.5,30.24,NNW,347,0.0,0.0,96,0.00,CLR,,0.00,WeatherDisplay:10.37,2013-05-26 08:31:00,
2013-05-26 04:34:00,37.3,36.3,30.25,NNW,347,0.0,0.0,96,0.00,CLR,,0.00,WeatherDisplay:10.37,2013-05-26 08:34:00,
2013-05-26 04:36:00,37.3,36.3,30.25,NNW,347,0.0,0.0,96,0.00,CLR,,0.00,WeatherDisplay:10.37,2013-05-26 08:36:00,
2013-05-26 04:39:00,37.2,36.2,30.25,NNW,347,0.0,0.0,96,0.00,CLR,,0.00,WeatherDisplay:10.37,2013-05-26 08:39:00,
2013-05-26 04:41:00,37.0,36.0,30.25,NNW,347,0.0,0.0,96,0.00,CLR,,0.00,WeatherDisplay:10.37,2013-05-26 08:41:00,
2013-05-26 04:42:00,37.0,36.0,30.25,NNW,347,0.0,0.0,96,0.00,CLR,,0.00,WeatherDisplay:10.37,2013-05-26 08:42:00,
2013-05-26 04:45:00,37.0,36.0,30.25,NNW,347,0.0,0.0,96,0.00,CLR,,0.00,WeatherDisplay:10.37,2013-05-26 08:45:00,
2013-05-26 04:46:00,37.0,36.2,30.25,NNW,347,0.0,0.0,97,0.00,CLR,,0.00,WeatherDisplay:10.37,2013-05-26 08:46:00,
2013-05-26 04:47:00,37.0,36.2,30.25,NNW,347,0.0,0.0,97,0.00,CLR,,0.00,WeatherDisplay:10.37,2013-05-26 08:47:00,
2013-05-26 04:48:00,37.2,36.4,30.25,NNW,347,0.0,0.0,97,0.00,CLR,,0.00,WeatherDisplay:10.37,2013-05-26 08:48:00,
2013-05-26 04:50:00,37.0,36.2,30.25,NNW,347,0.0,0.0,97,0.00,CLR,,0.00,WeatherDisplay:10.37,2013-05-26 08:50:00,
2013-05-26 04:51:00,37.0,36.2,30.25,NNW,347,0.0,0.0,97,0.00,CLR,,0.00,WeatherDisplay:10.37,2013-05-26 08:51:00,
2013-05-26 04:52:00,37.0,36.2,30.25,NNW,347,0.0,0.0,97,0.00,CLR,,0.00,WeatherDisplay:10.37,2013-05-26 08:52:00,
2013-05-26 04:53:00,37.0,36.2,30.25,NNW,347,0.0,0.0,97,0.00,CLR,,0.00,WeatherDisplay:10.37,2013-05-26 08:53:00,
2013-05-26 04:55:00,37.2,36.4,30.25,NNW,347,0.0,0.0,97,0.00,CLR,,0.00,WeatherDisplay:10.37,2013-05-26 08:55:00,
2013-05-26 04:57:00,37.2,36.4,30.25,NNW,347,0.0,0.0,97,0.00,CLR,,0.00,WeatherDisplay:10.37,2013-05-26 08:57:00,
2013-05-26 04:58:00,37.3,36.5,30.25,NNW,347,0.0,0.0,97,0.00,CLR,,0.00,WeatherDisplay:10.37,2013-05-26 08:58:00,
2013-05-26 05:00:00,37.2,36.4,30.25,NNW,347,0.0,0.0,97,0.00,CLR,,0.00,WeatherDisplay:10.37,2013-05-26 09:00:00,
2013-05-26 05:02:00,37.2,36.4,30.25,NNW,347,0.0,0.0,97,0.00,CLR,,0.00,WeatherDisplay:10.37,2013-05-26 09:02:00,
2013-05-26 05:03:00,37.0,36.2,30.25,NNW,347,0.0,0.0,97,0.00,CLR,,0.00,WeatherDisplay:10.37,2013-05-26 09:03:00,
2013-05-26 05:05:00,37.0,36.2,30.25,NNW,347,0.0,0.0,97,0.00,CLR,,0.00,WeatherDisplay:10.37,2013-05-26 09:05:00,
2013-05-26 05:07:00,37.0,36.2,30.26,NNW,347,0.0,0.0,97,0.00,CLR,,0.00,WeatherDisplay:10.37,2013-05-26 09:07:00,
2013-05-26 05:08:00,37.0,36.2,30.25,NNW,347,0.0,0.0,97,0.00,CLR,,0.00,WeatherDisplay:10.37,2013-05-26 09:08:00,
2013-05-26 05:11:00,36.9,36.1,30.26,ENE,58,0.0,0.0,97,0.00,CLR,,0.00,WeatherDisplay:10.37,2013-05-26 09:11:00,
2013-05-26 05:12:00,36.9,36.1,30.26,ENE,58,0.0,0.0,97,0.00,CLR,,0.00,WeatherDisplay:10.37,2013-05-26 09:12:00,
2013-05-26 05:13:00,36.9,36.1,30.26,ENE,58,0.0,0.0,97,0.00,CLR,,0.00,WeatherDisplay:10.37,2013-05-26 09:13:00,
2013-05-26 05:16:00,37.2,36.4,30.26,ENE,58,0.0,0.0,97,0.00,CLR,,0.00,WeatherDisplay:10.37,2013-05-26 09:16:00,
2013-05-26 05:18:00,37.3,36.8,30.26,ENE,58,0.0,0.0,98,0.00,CLR,,0.00,WeatherDisplay:10.37,2013-05-26 09:18:00,
2013-05-26 05:21:00,37.6,37.1,30.26,ENE,58,0.0,0.0,98,0.00,CLR,,0.00,WeatherDisplay:10.37,2013-05-26 09:21:00,
2013-05-26 05:23:00,37.8,37.3,30.25,ENE,58,0.0,0.0,98,0.00,CLR,,0.00,WeatherDisplay:10.37,2013-05-26 09:23:00,
2013-05-26 05:24:00,37.6,36.8,30.26,ENE,58,0.0,0.0,97,0.00,CLR,,0.00,WeatherDisplay:10.37,2013-05-26 09:24:00,
2013-05-26 05:26:00,37.5,36.7,30.26,ENE,58,0.0,0.0,97,0.00,CLR,,0.00,WeatherDisplay:10.37,2013-05-26 09:26:00,
2013-05-26 05:28:00,37.5,36.7,30.26,ENE,58,0.0,0.0,97,0.00,CLR,,0.00,WeatherDisplay:10.37,2013-05-26 09:28:00,
2013-05-26 05:29:00,37.6,36.8,30.26,ENE,58,0.0,0.0,97,0.00,CLR,,0.00,WeatherDisplay:10.37,2013-05-26 09:29:00,
2013-05-26 05:31:00,37.6,36.8,30.26,ENE,58,0.0,0.0,97,0.00,CLR,,0.00,WeatherDisplay:10.37,2013-05-26 09:31:00,
2013-05-26 05:33:00,37.8,37.0,30.26,ENE,58,0.0,0.0,97,0.00,CLR,,0.00,WeatherDisplay:10.37,2013-05-26 09:33:00,
2013-05-26 05:34:00,37.8,37.0,30.26,ENE,58,0.0,0.0,97,0.00,CLR,,0.00,WeatherDisplay:10.37,2013-05-26 09:34:00,
2013-05-26 05:36:00,37.9,37.1,30.26,ENE,58,0.0,0.0,97,0.00,CLR,,0.00,WeatherDisplay:10.37,2013-05-26 09:36:00,
2013-05-26 05:38:00,37.8,37.0,30.26,ENE,58,0.0,0.0,97,0.00,CLR,,0.00,WeatherDisplay:10.37,2013-05-26 09:38:00,
2013-05-26 05:39:00,37.8,37.0,30.26,ENE,58,0.0,0.0,97,0.00,CLR,,0.00,WeatherDisplay:10.37,2013-05-26 09:39:00,
2013-05-26 05:41:00,37.8,37.0,30.26,ENE,58,0.0,0.0,97,0.00,CLR,,0.00,WeatherDisplay:10.37,2013-05-26 09:41:00,
2013-05-26 05:44:00,37.6,36.8,30.26,ENE,58,0.0,0.0,97,0.00,CLR,,0.00,WeatherDisplay:10.37,2013-05-26 09:44:00,
2013-05-26 05:45:00,37.6,36.8,30.26,ENE,58,0.0,0.0,97,0.00,CLR,,0.00,WeatherDisplay:10.37,2013-05-26 09:45:00,
2013-05-26 05:46:00,37.6,36.8,30.26,ENE,58,0.0,0.0,97,0.00,CLR,,0.00,WeatherDisplay:10.37,2013-05-26 09:46:00,
2013-05-26 05:49:00,37.6,36.8,30.26,ENE,58,0.0,0.0,97,0.00,CLR,,0.00,WeatherDisplay:10.37,2013-05-26 09:49:00,
2013-05-26 05:50:00,37.5,36.5,30.26,ENE,58,0.0,0.0,96,0.00,CLR,,0.00,WeatherDisplay:10.37,2013-05-26 09:50:00,
2013-05-26 05:52:00,37.5,36.5,30.26,ENE,58,0.0,0.0,96,0.00,CLR,,0.00,WeatherDisplay:10.37,2013-05-26 09:52:00,
2013-05-26 05:54:00,37.3,36.3,30.27,ENE,58,0.0,0.0,96,0.00,CLR,,0.00,WeatherDisplay:10.37,2013-05-26 09:54:00,
2013-05-26 05:55:00,37.3,36.3,30.27,ENE,58,0.0,0.0,96,0.00,CLR,,0.00,WeatherDisplay:10.37,2013-05-26 09:55:00,
2013-05-26 05:57:00,37.2,36.2,30.27,ENE,58,0.0,0.0,96,0.00,CLR,,0.00,WeatherDisplay:10.37,2013-05-26 09:57:00,
2013-05-26 05:59:00,37.0,36.0,30.26,ENE,58,0.0,0.0,96,0.00,CLR,,0.00,WeatherDisplay:10.37,2013-05-26 09:59:00,
2013-05-26 06:00:00,37.0,36.0,30.26,ENE,58,0.0,0.0,96,0.00,CLR,,0.00,WeatherDisplay:10.37,2013-05-26 10:00:00,
2013-05-26 06:01:00,37.0,36.0,30.26,ENE,58,0.0,0.0,96,0.00,CLR,,0.00,WeatherDisplay:10.37,2013-05-26 10:01:00,
2013-05-26 06:02:00,37.0,36.2,30.26,ENE,58,0.0,0.0,97,0.00,CLR,,0.00,WeatherDisplay:10.37,2013-05-26 10:02:00,
2013-05-26 06:04:00,36.9,35.9,30.26,ENE,58,0.0,0.0,96,0.00,CLR,,0.00,WeatherDisplay:10.37,2013-05-26 10:04:00,
2013-05-26 06:05:00,36.9,35.9,30.26,ENE,58,0.0,0.0,96,0.00,CLR,,0.00,WeatherDisplay:10.37,2013-05-26 10:05:00,
2013-05-26 06:06:00,36.9,35.9,30.26,ENE,58,0.0,0.0,96,0.00,CLR,,0.00,WeatherDisplay:10.37,2013-05-26 10:06:00,
2013-05-26 06:07:00,36.9,35.9,30.26,ENE,58,0.0,0.0,96,0.00,CLR,,0.00,WeatherDisplay:10.37,2013-05-26 10:07:00,
2013-05-26 06:09:00,36.9,35.9,30.26,ENE,58,0.0,0.0,96,0.00,CLR,,0.00,WeatherDisplay:10.37,2013-05-26 10:09:00,
2013-05-26 06:10:00,36.9,36.1,30.26,ENE,58,0.0,0.0,97,0.00,CLR,,0.00,WeatherDisplay:10.37,2013-05-26 10:10:00,
2013-05-26 06:11:00,36.9,36.1,30.26,ENE,58,0.0,0.0,97,0.00,CLR,,0.00,WeatherDisplay:10.37,2013-05-26 10:11:00,
2013-05-26 06:12:00,37.0,36.2,30.26,ENE,58,0.0,0.0,97,0.00,CLR,,0.00,WeatherDisplay:10.37,2013-05-26 10:12:00,
2013-05-26 06:14:00,37.0,36.2,30.26,ENE,58,0.0,0.0,97,0.00,CLR,,0.00,WeatherDisplay:10.37,2013-05-26 10:14:00,
2013-05-26 06:16:00,37.2,36.4,30.27,ENE,58,0.0,0.0,97,0.00,CLR,,0.00,WeatherDisplay:10.37,2013-05-26 10:16:00,
2013-05-26 06:17:00,37.2,36.4,30.27,ENE,58,0.0,0.0,97,0.00,CLR,,0.00,WeatherDisplay:10.37,2013-05-26 10:17:00,
2013-05-26 06:19:00,37.3,36.5,30.27,ENE,58,0.0,0.0,97,0.00,CLR,,0.00,WeatherDisplay:10.37,2013-05-26 10:19:00,
2013-05-26 06:21:00,37.3,36.5,30.27,ENE,58,0.0,0.0,97,0.00,CLR,,0.00,WeatherDisplay:10.37,2013-05-26 10:21:00,
2013-05-26 06:23:00,37.5,36.7,30.27,ENE,58,0.0,0.0,97,0.00,CLR,,0.00,WeatherDisplay:10.37,2013-05-26 10:23:00,
2013-05-26 06:25:00,37.6,36.8,30.27,ENE,58,0.0,0.0,97,0.00,CLR,,0.00,WeatherDisplay:10.37,2013-05-26 10:25:00,
2013-05-26 06:26:00,37.8,37.0,30.27,ENE,58,0.0,0.0,97,0.00,CLR,,0.00,WeatherDisplay:10.37,2013-05-26 10:26:00,
2013-05-26 06:27:00,37.9,37.1,30.27,ENE,58,0.0,0.0,97,0.00,CLR,,0.00,WeatherDisplay:10.37,2013-05-26 10:27:00,
2013-05-26 06:28:00,37.9,37.1,30.27,ENE,58,0.0,0.0,97,0.00,CLR,,0.00,WeatherDisplay:10.37,2013-05-26 10:28:00,
2013-05-26 06:30:00,38.0,37.2,30.27,ENE,58,0.0,0.0,97,0.00,CLR,,0.00,WeatherDisplay:10.37,2013-05-26 10:30:00,
2013-05-26 06:31:00,38.0,37.2,30.27,ENE,58,0.0,0.0,97,0.00,CLR,,0.00,WeatherDisplay:10.37,2013-05-26 10:31:00,
2013-05-26 06:32:00,38.2,37.4,30.27,ENE,58,0.0,0.0,97,0.00,CLR,,0.00,WeatherDisplay:10.37,2013-05-26 10:32:00,
2013-05-26 06:33:00,38.2,37.4,30.27,ENE,58,0.0,0.0,97,0.00,CLR,,0.00,WeatherDisplay:10.37,2013-05-26 10:33:00,
2013-05-26 06:35:00,38.3,37.5,30.27,ENE,58,0.0,0.0,97,0.00,CLR,,0.00,WeatherDisplay:10.37,2013-05-26 10:35:00,
2013-05-26 06:36:00,38.3,37.5,30.27,ENE,58,0.0,0.0,97,0.00,CLR,,0.00,WeatherDisplay:10.37,2013-05-26 10:36:00,
2013-05-26 06:37:00,38.3,37.5,30.27,ENE,58,0.0,0.0,97,0.00,CLR,,0.00,WeatherDisplay:10.37,2013-05-26 10:37:00,
2013-05-26 06:38:00,38.3,37.5,30.27,ENE,58,0.0,0.0,97,0.00,CLR,,0.00,WeatherDisplay:10.37,2013-05-26 10:38:00,
2013-05-26 06:40:00,38.3,37.3,30.27,ENE,58,0.0,0.0,96,0.00,CLR,,0.00,WeatherDisplay:10.37,2013-05-26 10:40:00,
2013-05-26 06:41:00,38.3,37.3,30.27,ENE,58,0.0,0.0,96,0.00,CLR,,0.00,WeatherDisplay:10.37,2013-05-26 10:41:00,
2013-05-26 06:42:00,38.3,37.3,30.27,ENE,58,0.0,0.0,96,0.00,CLR,,0.00,WeatherDisplay:10.37,2013-05-26 10:42:00,
2013-05-26 06:43:00,38.3,37.3,30.27,ENE,58,0.0,0.0,96,0.00,CLR,,0.00,WeatherDisplay:10.37,2013-05-26 10:43:00,
2013-05-26 06:45:00,38.3,37.3,30.27,ENE,58,0.0,0.0,96,0.00,CLR,,0.00,WeatherDisplay:10.37,2013-05-26 10:45:00,
2013-05-26 06:47:00,38.3,37.3,30.27,ENE,58,0.0,0.0,96,0.00,CLR,,0.00,WeatherDisplay:10.37,2013-05-26 10:47:00,
2013-05-26 06:48:00,38.3,37.3,30.27,ENE,58,0.0,0.0,96,0.00,CLR,,0.00,WeatherDisplay:10.37,2013-05-26 10:48:00,
2013-05-26 06:50:00,38.3,37.3,30.27,ENE,58,0.0,0.0,96,0.00,CLR,,0.00,WeatherDisplay:10.37,2013-05-26 10:50:00,
2013-05-26 06:52:00,38.3,37.3,30.27,ENE,58,0.0,0.0,96,0.00,CLR,,0.00,WeatherDisplay:10.37,2013-05-26 10:52:00,
2013-05-26 06:53:00,38.5,37.5,30.27,ENE,58,0.0,0.0,96,0.00,CLR,,0.00,WeatherDisplay:10.37,2013-05-26 10:53:00,
2013-05-26 06:55:00,38.5,37.5,30.28,ENE,58,0.0,0.0,96,0.00,CLR,,0.00,WeatherDisplay:10.37,2013-05-26 10:55:00,
2013-05-26 06:57:00,38.5,37.5,30.28,ENE,58,0.0,0.0,96,0.00,CLR,,0.00,WeatherDisplay:10.37,2013-05-26 10:57:00,
2013-05-26 06:58:00,38.6,37.6,30.28,ENE,58,0.0,0.0,96,0.00,CLR,,0.00,WeatherDisplay:10.37,2013-05-26 10:58:00,
2013-05-26 07:00:00,38.8,37.8,30.28,ENE,58,0.0,0.0,96,0.00,CLR,,0.00,WeatherDisplay:10.37,2013-05-26 11:00:00,
2013-05-26 07:02:00,38.9,38.1,30.28,ENE,58,0.0,0.0,97,0.00,CLR,,0.00,WeatherDisplay:10.37,2013-05-26 11:02:00,
2013-05-26 07:03:00,38.9,38.1,30.28,ENE,58,0.0,0.0,97,0.00,CLR,,0.00,WeatherDisplay:10.37,2013-05-26 11:03:00,
2013-05-26 07:05:00,39.6,38.8,30.28,ENE,58,0.0,0.0,97,0.00,CLR,,0.00,WeatherDisplay:10.37,2013-05-26 11:05:00,
2013-05-26 07:08:00,39.9,39.1,30.28,ENE,58,0.0,0.0,97,0.00,CLR,,0.00,WeatherDisplay:10.37,2013-05-26 11:08:00,
2013-05-26 07:09:00,40.2,39.4,30.28,ENE,58,0.0,0.0,97,0.00,CLR,,0.00,WeatherDisplay:10.37,2013-05-26 11:09:00,
2013-05-26 07:11:00,40.5,39.4,30.28,ENE,58,0.0,0.0,96,0.00,CLR,,0.00,WeatherDisplay:10.37,2013-05-26 11:11:00,
2013-05-26 07:13:00,40.8,39.7,30.28,ENE,58,0.0,0.0,96,0.00,CLR,,0.00,WeatherDisplay:10.37,2013-05-26 11:13:00,
2013-05-26 07:14:00,40.9,39.8,30.28,ENE,58,0.0,0.0,96,0.00,CLR,,0.00,WeatherDisplay:10.37,2013-05-26 11:14:00,
2013-05-26 07:16:00,41.1,39.8,30.28,ENE,58,0.0,0.0,95,0.00,CLR,,0.00,WeatherDisplay:10.37,2013-05-26 11:16:00,
2013-05-26 07:18:00,41.3,40.0,30.28,ENE,58,0.0,0.0,95,0.00,CLR,,0.00,WeatherDisplay:10.37,2013-05-26 11:18:00,
2013-05-26 07:19:00,41.5,39.9,30.28,ENE,58,0.0,0.0,94,0.00,CLR,,0.00,WeatherDisplay:10.37,2013-05-26 11:19:00,
2013-05-26 07:21:00,41.8,40.2,30.28,ENE,58,0.0,0.0,94,0.00,CLR,,0.00,WeatherDisplay:10.37,2013-05-26 11:21:00,
2013-05-26 07:23:00,42.1,40.5,30.28,ENE,58,0.0,0.0,94,0.00,CLR,,0.00,WeatherDisplay:10.37,2013-05-26 11:23:00,
2013-05-26 07:24:00,42.2,40.6,30.28,ENE,58,0.0,0.0,94,0.00,CLR,,0.00,WeatherDisplay:10.37,2013-05-26 11:24:00,
2013-05-26 07:26:00,42.6,40.7,30.28,ENE,58,0.0,0.0,93,0.00,CLR,,0.00,WeatherDisplay:10.37,2013-05-26 11:26:00,
2013-05-26 07:28:00,42.9,40.7,30.28,ENE,58,0.0,0.0,92,0.00,CLR,,0.00,WeatherDisplay:10.37,2013-05-26 11:28:00,
2013-05-26 07:29:00,43.1,40.9,30.28,ENE,58,0.0,0.0,92,0.00,CLR,,0.00,WeatherDisplay:10.37,2013-05-26 11:29:00,
2013-05-26 07:30:00,43.2,41.0,30.28,ENE,58,0.0,0.0,92,0.00,CLR,,0.00,WeatherDisplay:10.37,2013-05-26 11:30:00,
2013-05-26 07:32:00,43.5,41.0,30.28,ENE,58,0.0,0.0,91,0.00,CLR,,0.00,WeatherDisplay:10.37,2013-05-26 11:32:00,
2013-05-26 07:33:00,43.8,41.1,30.28,ENE,58,0.0,0.0,90,0.00,CLR,,0.00,WeatherDisplay:10.37,2013-05-26 11:33:00,
2013-05-26 07:34:00,43.9,41.2,30.28,ENE,58,0.0,0.0,90,0.00,CLR,,0.00,WeatherDisplay:10.37,2013-05-26 11:34:00,
2013-05-26 07:35:00,44.1,41.1,30.28,ENE,58,0.0,0.0,89,0.00,CLR,,0.00,WeatherDisplay:10.37,2013-05-26 11:35:00,
2013-05-26 07:37:00,44.3,41.3,30.28,ENE,58,0.0,0.0,89,0.00,CLR,,0.00,WeatherDisplay:10.37,2013-05-26 11:37:00,
2013-05-26 07:38:00,44.5,41.2,30.28,ENE,58,0.0,0.0,88,0.00,CLR,,0.00,WeatherDisplay:10.37,2013-05-26 11:38:00,
2013-05-26 07:39:00,44.6,41.3,30.28,ENE,58,0.0,0.0,88,0.00,CLR,,0.00,WeatherDisplay:10.37,2013-05-26 11:39:00,
2013-05-26 07:40:00,44.8,41.5,30.28,ENE,58,0.0,0.0,88,0.00,CLR,,0.00,WeatherDisplay:10.37,2013-05-26 11:40:00,
2013-05-26 07:42:00,45.1,41.5,30.28,ENE,58,0.0,0.0,87,0.00,CLR,,0.00,WeatherDisplay:10.37,2013-05-26 11:42:00,
2013-05-26 07:43:00,45.2,41.6,30.28,ENE,58,0.0,0.0,87,0.00,CLR,,0.00,WeatherDisplay:10.37,2013-05-26 11:43:00,
2013-05-26 07:44:00,45.4,41.5,30.28,ENE,58,0.0,0.0,86,0.00,CLR,,0.00,WeatherDisplay:10.37,2013-05-26 11:44:00,
2013-05-26 07:45:00,45.5,41.6,30.28,NE,56,0.0,0.0,86,0.00,CLR,,0.00,WeatherDisplay:10.37,2013-05-26 11:45:00,
2013-05-26 07:47:00,46.0,42.0,30.28,NE,56,0.0,0.0,86,0.00,CLR,,0.00,WeatherDisplay:10.37,2013-05-26 11:47:00,
2013-05-26 07:48:00,46.0,41.7,30.28,North,7,0.0,0.0,85,0.00,CLR,,0.00,WeatherDisplay:10.37,2013-05-26 11:48:00,
2013-05-26 07:49:00,46.0,41.4,30.28,North,3,1.0,1.0,84,0.00,CLR,,0.00,WeatherDisplay:10.37,2013-05-26 11:49:00,
2013-05-26 07:50:00,46.1,41.2,30.28,North,0,2.3,2.3,83,0.00,CLR,,0.00,WeatherDisplay:10.37,2013-05-26 11:50:00,
2013-05-26 07:51:00,46.1,40.3,30.28,North,0,1.1,0.0,80,0.00,CLR,,0.00,WeatherDisplay:10.37,2013-05-26 11:51:00,
2013-05-26 07:52:00,46.4,40.6,30.28,North,0,0.0,0.0,80,0.00,CLR,,0.00,WeatherDisplay:10.37,2013-05-26 11:52:00,
2013-05-26 07:53:00,46.5,40.3,30.28,North,0,0.0,0.0,79,0.00,CLR,,0.00,WeatherDisplay:10.37,2013-05-26 11:53:00,
2013-05-26 07:54:00,46.5,40.3,30.28,North,359,0.0,0.0,79,0.00,CLR,,0.00,WeatherDisplay:10.37,2013-05-26 11:54:00,
2013-05-26 07:55:00,46.7,40.2,30.28,NNW,330,0.0,0.0,78,0.00,CLR,,0.00,WeatherDisplay:10.37,2013-05-26 11:55:00,
2013-05-26 07:56:00,46.8,40.0,30.28,NNW,333,0.0,0.0,77,0.00,CLR,,0.00,WeatherDisplay:10.37,2013-05-26 11:56:00,
2013-05-26 07:58:00,46.8,39.3,30.28,NNW,346,4.6,4.6,75,0.00,CLR,,0.00,WeatherDisplay:10.37,2013-05-26 11:58:00,
2013-05-26 07:59:00,46.8,39.3,30.28,NNW,346,4.6,4.6,75,0.00,CLR,,0.00,WeatherDisplay:10.37,2013-05-26 11:59:00,
2013-05-26 08:00:00,47.0,39.1,30.28,NW,311,4.6,4.6,74,0.00,CLR,,0.00,WeatherDisplay:10.37,2013-05-26 12:00:00,
2013-05-26 08:01:00,47.0,39.1,30.28,NW,311,0.0,0.0,74,0.00,CLR,,0.00,WeatherDisplay:10.37,2013-05-26 12:01:00,
2013-05-26 08:03:00,47.3,39.8,30.28,NNW,339,1.0,1.0,75,0.00,CLR,,0.00,WeatherDisplay:10.37,2013-05-26 12:03:00,
2013-05-26 08:04:00,47.3,39.8,30.28,NNW,344,2.3,2.3,75,0.00,CLR,,0.00,WeatherDisplay:10.37,2013-05-26 12:04:00,
2013-05-26 08:06:00,47.4,39.5,30.28,NW,322,3.5,3.5,74,0.00,CLR,,0.00,WeatherDisplay:10.37,2013-05-26 12:06:00,
2013-05-26 08:08:00,47.6,39.7,30.28,NW,323,0.0,0.0,74,0.00,CLR,,0.00,WeatherDisplay:10.37,2013-05-26 12:08:00,
2013-05-26 08:09:00,47.7,39.5,30.28,NW,323,0.0,0.0,73,0.00,CLR,,0.00,WeatherDisplay:10.37,2013-05-26 12:09:00,
2013-05-26 08:11:00,47.9,40.0,30.28,NW,323,0.0,0.0,74,0.00,CLR,,0.00,WeatherDisplay:10.37,2013-05-26 12:11:00,
2013-05-26 08:13:00,47.9,39.7,30.28,NNW,332,1.1,0.0,73,0.00,CLR,,0.00,WeatherDisplay:10.37,2013-05-26 12:13:00,
2013-05-26 08:14:00,48.0,39.4,30.28,NNW,332,0.0,0.0,72,0.00,CLR,,0.00,WeatherDisplay:10.37,2013-05-26 12:14:00,
2013-05-26 08:16:00,48.2,39.9,30.28,North,359,2.3,2.3,73,0.00,CLR,,0.00,WeatherDisplay:10.37,2013-05-26 12:16:00,
2013-05-26 08:17:00,48.2,39.9,30.28,North,359,2.3,2.3,73,0.00,CLR,,0.00,WeatherDisplay:10.37,2013-05-26 12:17:00,
2013-05-26 08:18:00,48.3,39.7,30.28,NNW,329,2.3,2.3,72,0.00,CLR,,0.00,WeatherDisplay:10.37,2013-05-26 12:18:00,
2013-05-26 08:19:00,48.5,39.9,30.28,NNW,329,3.5,3.5,72,0.00,CLR,,0.00,WeatherDisplay:10.37,2013-05-26 12:19:00,
2013-05-26 08:21:00,48.5,39.9,30.28,North,0,2.3,2.3,72,0.00,CLR,,0.00,WeatherDisplay:10.37,2013-05-26 12:21:00,
2013-05-26 08:22:00,48.6,40.0,30.28,North,359,2.3,2.3,72,0.00,CLR,,0.00,WeatherDisplay:10.37,2013-05-26 12:22:00,
2013-05-26 08:24:00,48.6,39.6,30.28,North,349,2.3,2.3,71,0.00,CLR,,0.00,WeatherDisplay:10.37,2013-05-26 12:24:00,
2013-05-26 08:26:00,48.6,39.3,30.28,NNW,333,0.0,0.0,70,0.00,CLR,,0.00,WeatherDisplay:10.37,2013-05-26 12:26:00,
2013-05-26 08:27:00,48.6,39.3,30.28,NNW,335,0.0,0.0,70,0.00,CLR,,0.00,WeatherDisplay:10.37,2013-05-26 12:27:00,
2013-05-26 08:29:00,48.6,39.3,30.28,North,350,3.5,3.5,70,0.00,CLR,,0.00,WeatherDisplay:10.37,2013-05-26 12:29:00,
2013-05-26 08:31:00,48.8,39.4,30.28,North,349,1.1,0.0,70,0.00,CLR,,0.00,WeatherDisplay:10.37,2013-05-26 12:31:00,
2013-05-26 08:32:00,48.8,39.4,30.28,NNW,339,0.0,0.0,70,0.00,CLR,,0.00,WeatherDisplay:10.37,2013-05-26 12:32:00,
2013-05-26 08:34:00,48.9,39.5,30.28,North,356,8.0,8.0,70,0.00,CLR,,0.00,WeatherDisplay:10.37,2013-05-26 12:34:00,
2013-05-26 08:35:00,48.8,39.4,30.28,NNW,332,10.4,10.4,70,0.00,CLR,,0.00,WeatherDisplay:10.37,2013-05-26 12:35:00,
2013-05-26 08:37:00,48.9,39.5,30.28,NNW,343,2.3,2.3,70,0.00,CLR,,0.00,WeatherDisplay:10.37,2013-05-26 12:37:00,
2013-05-26 08:38:00,48.9,39.2,30.28,NNW,329,2.3,2.3,69,0.00,CLR,,0.00,WeatherDisplay:10.37,2013-05-26 12:38:00,
2013-05-26 08:39:00,48.9,39.2,30.28,NNW,337,0.0,0.0,69,0.00,CLR,,0.00,WeatherDisplay:10.37,2013-05-26 12:39:00,
2013-05-26 08:40:00,48.9,39.2,30.28,North,0,6.9,6.9,69,0.00,CLR,,0.00,WeatherDisplay:10.37,2013-05-26 12:40:00,
2013-05-26 08:42:00,48.9,39.2,30.28,North,0,2.0,0.0,69,0.00,CLR,,0.00,WeatherDisplay:10.37,2013-05-26 12:42:00,
2013-05-26 08:43:00,48.9,38.4,30.28,North,0,2.3,2.3,67,0.00,CLR,,0.00,WeatherDisplay:10.37,2013-05-26 12:43:00,
2013-05-26 08:44:00,48.9,38.4,30.28,NNW,340,0.0,0.1,67,0.00,CLR,,0.00,WeatherDisplay:10.37,2013-05-26 12:44:00,
2013-05-26 08:45:00,48.9,38.8,30.28,NNW,337,1.1,0.0,68,0.00,CLR,,0.00,WeatherDisplay:10.37,2013-05-26 12:45:00,
2013-05-26 08:47:00,49.1,39.0,30.28,NW,322,0.0,0.0,68,0.00,CLR,,0.00,WeatherDisplay:10.37,2013-05-26 12:47:00,
2013-05-26 08:48:00,49.1,39.0,30.28,NW,322,0.0,0.0,68,0.00,CLR,,0.00,WeatherDisplay:10.37,2013-05-26 12:48:00,
2013-05-26 08:49:00,49.2,39.1,30.28,West,278,0.0,0.0,68,0.00,CLR,,0.00,WeatherDisplay:10.37,2013-05-26 12:49:00,
2013-05-26 08:50:00,49.2,39.1,30.28,NW,323,0.0,0.0,68,0.00,CLR,,0.00,WeatherDisplay:10.37,2013-05-26 12:50:00,
2013-05-26 08:52:00,49.2,38.3,30.28,NW,305,5.8,5.8,66,0.00,CLR,,0.00,WeatherDisplay:10.37,2013-05-26 12:52:00,
2013-05-26 08:53:00,49.2,38.3,30.28,North,356,3.5,3.5,66,0.00,CLR,,0.00,WeatherDisplay:10.37,2013-05-26 12:53:00,
2013-05-26 08:55:00,49.4,38.9,30.28,NW,326,3.5,3.5,67,0.00,CLR,,0.00,WeatherDisplay:10.37,2013-05-26 12:55:00,
2013-05-26 08:57:00,49.5,39.0,30.28,WNW,296,0.0,0.0,67,0.00,CLR,,0.00,WeatherDisplay:10.37,2013-05-26 12:57:00,
2013-05-26 08:58:00,49.6,39.1,30.28,WNW,296,0.0,0.0,67,0.00,CLR,,0.00,WeatherDisplay:10.37,2013-05-26 12:58:00,
2013-05-26 09:00:00,49.5,38.6,30.28,NNW,346,3.5,3.5,66,0.00,CLR,,0.00,WeatherDisplay:10.37,2013-05-26 13:00:00,
2013-05-26 09:03:00,49.6,38.7,30.28,NW,304,2.3,2.3,66,0.00,CLR,,0.00,WeatherDisplay:10.37,2013-05-26 13:03:00,
2013-05-26 09:05:00,49.6,37.9,30.28,NW,325,3.5,3.5,64,0.00,CLR,,0.00,WeatherDisplay:10.37,2013-05-26 13:05:00,
2013-05-26 09:08:00,49.8,37.7,30.28,NW,315,4.6,4.6,63,0.00,CLR,,0.00,WeatherDisplay:10.37,2013-05-26 13:08:00,
2013-05-26 09:10:00,49.9,37.8,30.28,NNW,339,6.0,6.0,63,0.00,CLR,,0.00,WeatherDisplay:10.37,2013-05-26 13:10:00,
2013-05-26 09:11:00,49.9,37.8,30.28,NNW,339,3.5,3.5,63,0.00,CLR,,0.00,WeatherDisplay:10.37,2013-05-26 13:11:00,
2013-05-26 09:13:00,49.9,37.8,30.28,North,0,6.0,6.0,63,0.00,CLR,,0.00,WeatherDisplay:10.37,2013-05-26 13:13:00,
2013-05-26 09:16:00,49.9,37.8,30.28,NNW,344,3.5,3.5,63,0.00,CLR,,0.00,WeatherDisplay:10.37,2013-05-26 13:16:00,
2013-05-26 09:18:00,49.8,37.7,30.28,North,3,8.1,8.1,63,0.00,CLR,,0.00,WeatherDisplay:10.37,2013-05-26 13:18:00,
2013-05-26 09:19:00,49.8,37.7,30.28,North,1,0.0,0.0,63,0.00,CLR,,0.00,WeatherDisplay:10.37,2013-05-26 13:19:00,
2013-05-26 09:21:00,49.8,37.7,30.28,NNW,332,5.8,5.8,63,0.00,CLR,,0.00,WeatherDisplay:10.37,2013-05-26 13:21:00,
2013-05-26 09:23:00,49.8,38.1,30.28,North,354,4.6,4.6,64,0.00,CLR,,0.00,WeatherDisplay:10.37,2013-05-26 13:23:00,
2013-05-26 09:24:00,49.8,38.1,30.28,North,353,5.0,5.0,64,0.00,CLR,,0.00,WeatherDisplay:10.37,2013-05-26 13:24:00,
2013-05-26 09:26:00,49.9,38.2,30.28,North,1,3.5,3.5,64,0.00,CLR,,0.00,WeatherDisplay:10.37,2013-05-26 13:26:00,
2013-05-26 09:27:00,49.9,38.2,30.28,North,0,0.0,0.0,64,0.00,CLR,,0.00,WeatherDisplay:10.37,2013-05-26 13:27:00,
2013-05-26 09:29:00,50.1,38.4,30.28,NNW,342,4.6,4.6,64,0.00,CLR,,0.00,WeatherDisplay:10.37,2013-05-26 13:29:00,
2013-05-26 09:31:00,50.1,38.0,30.28,NNW,347,5.0,5.0,63,0.00,CLR,,0.00,WeatherDisplay:10.37,2013-05-26 13:31:00,
2013-05-26 09:32:00,50.1,38.0,30.28,NNW,347,10.4,10.4,63,0.00,CLR,,0.00,WeatherDisplay:10.37,2013-05-26 13:32:00,
2013-05-26 09:34:00,50.1,37.6,30.28,NNW,339,2.3,2.3,62,0.00,CLR,,0.00,WeatherDisplay:10.37,2013-05-26 13:34:00,
2013-05-26 09:35:00,50.2,37.7,30.28,NNW,333,1.1,1.1,62,0.00,CLR,,0.00,WeatherDisplay:10.37,2013-05-26 13:35:00,
2013-05-26 09:36:00,50.2,38.1,30.28,North,359,1.1,1.8,63,0.00,CLR,,0.00,WeatherDisplay:10.37,2013-05-26 13:36:00,
2013-05-26 09:38:00,50.4,37.4,30.28,North,359,2.3,0.0,61,0.00,CLR,,0.00,WeatherDisplay:10.37,2013-05-26 13:38:00,
2013-05-26 09:39:00,50.4,37.9,30.28,NNW,336,0.0,0.0,62,0.00,CLR,,0.00,WeatherDisplay:10.37,2013-05-26 13:39:00,
2013-05-26 09:41:00,50.5,38.0,30.28,NNW,342,3.5,3.5,62,0.00,CLR,,0.00,WeatherDisplay:10.37,2013-05-26 13:41:00,
2013-05-26 09:43:00,50.7,38.1,30.28,North,6,3.5,3.5,62,0.00,CLR,,0.00,WeatherDisplay:10.37,2013-05-26 13:43:00,
2013-05-26 09:44:00,50.8,38.2,30.28,NW,304,2.3,2.3,62,0.00,CLR,,0.00,WeatherDisplay:10.37,2013-05-26 13:44:00,
2013-05-26 09:46:00,51.1,38.5,30.29,North,0,7.0,7.0,62,0.00,CLR,,0.00,WeatherDisplay:10.37,2013-05-26 13:46:00,
2013-05-26 09:49:00,51.1,36.8,30.29,North,354,4.6,4.6,58,0.00,CLR,,0.00,WeatherDisplay:10.37,2013-05-26 13:49:00,
2013-05-26 09:50:00,51.3,37.4,30.29,NNW,346,3.5,3.5,59,0.00,CLR,,0.00,WeatherDisplay:10.37,2013-05-26 13:50:00,
2013-05-26 09:51:00,51.3,37.4,30.29,North,0,5.8,5.8,59,0.00,CLR,,0.00,WeatherDisplay:10.37,2013-05-26 13:51:00,
2013-05-26 09:54:00,51.6,37.7,30.28,North,357,5.0,5.0,59,0.00,CLR,,0.00,WeatherDisplay:10.37,2013-05-26 13:54:00,
2013-05-26 09:55:00,51.6,37.7,30.28,North,356,4.6,4.6,59,0.00,CLR,,0.00,WeatherDisplay:10.37,2013-05-26 13:55:00,
2013-05-26 09:56:00,51.7,37.8,30.28,NNW,347,5.0,5.0,59,0.00,CLR,,0.00,WeatherDisplay:10.37,2013-05-26 13:56:00,
2013-05-26 09:57:00,51.9,37.6,30.29,North,356,4.6,4.6,58,0.00,CLR,,0.00,WeatherDisplay:10.37,2013-05-26 13:57:00,
2013-05-26 09:59:00,51.9,37.6,30.29,North,359,10.4,10.4,58,0.00,CLR,,0.00,WeatherDisplay:10.37,2013-05-26 13:59:00,
2013-05-26 10:00:00,51.9,37.6,30.29,NNW,336,10.4,10.4,58,0.00,CLR,,0.00,WeatherDisplay:10.37,2013-05-26 14:00:00,
2013-05-26 10:01:00,51.7,36.9,30.29,North,357,3.5,3.5,57,0.00,CLR,,0.00,WeatherDisplay:10.37,2013-05-26 14:01:00,
2013-05-26 10:02:00,51.6,36.9,30.29,North,0,7.0,7.0,57,0.00,CLR,,0.00,WeatherDisplay:10.37,2013-05-26 14:02:00,
2013-05-26 10:04:00,51.4,36.7,30.29,North,1,8.1,8.1,57,0.00,CLR,,0.00,WeatherDisplay:10.37,2013-05-26 14:04:00,
2013-05-26 10:05:00,51.4,36.7,30.29,North,1,8.1,8.1,57,0.00,CLR,,0.00,WeatherDisplay:10.37,2013-05-26 14:05:00,
2013-05-26 10:06:00,51.4,36.7,30.29,NNW,339,8.1,8.1,57,0.00,CLR,,0.00,WeatherDisplay:10.37,2013-05-26 14:06:00,
2013-05-26 10:08:00,51.7,37.8,30.29,NNW,340,0.0,0.0,59,0.00,CLR,,0.00,WeatherDisplay:10.37,2013-05-26 14:08:00,
2013-05-26 10:09:00,51.7,37.8,30.29,NNW,340,5.8,5.8,59,0.00,CLR,,0.00,WeatherDisplay:10.37,2013-05-26 14:09:00,
2013-05-26 10:10:00,51.7,37.8,30.29,NNW,337,5.8,5.8,59,0.00,CLR,,0.00,WeatherDisplay:10.37,2013-05-26 14:10:00,
2013-05-26 10:12:00,51.9,37.6,30.29,NNW,328,2.3,2.3,58,0.00,CLR,,0.00,WeatherDisplay:10.37,2013-05-26 14:12:00,
2013-05-26 10:13:00,51.7,37.4,30.29,North,354,8.0,8.0,58,0.00,CLR,,0.00,WeatherDisplay:10.37,2013-05-26 14:13:00,
2013-05-26 10:14:00,51.7,37.4,30.29,NNW,328,8.1,8.1,58,0.00,CLR,,0.00,WeatherDisplay:10.37,2013-05-26 14:14:00,
2013-05-26 10:15:00,51.7,37.4,30.29,NNW,337,4.6,4.6,58,0.00,CLR,,0.00,WeatherDisplay:10.37,2013-05-26 14:15:00,
2013-05-26 10:17:00,51.9,38.4,30.29,NNW,344,2.0,2.0,60,0.00,CLR,,0.00,WeatherDisplay:10.37,2013-05-26 14:17:00,
2013-05-26 10:18:00,52.0,38.5,30.29,NNE,32,3.5,3.5,60,0.00,CLR,,0.00,WeatherDisplay:10.37,2013-05-26 14:18:00,
2013-05-26 10:20:00,52.2,38.7,30.29,NW,319,3.5,3.5,60,0.00,CLR,,0.00,WeatherDisplay:10.37,2013-05-26 14:20:00,
2013-05-26 10:22:00,52.3,38.4,30.29,NNW,346,3.5,3.5,59,0.00,CLR,,0.00,WeatherDisplay:10.37,2013-05-26 14:22:00,
2013-05-26 10:23:00,52.3,38.8,30.29,North,356,5.8,5.8,60,0.00,CLR,,0.00,WeatherDisplay:10.37,2013-05-26 14:23:00,
2013-05-26 10:25:00,52.3,38.0,30.29,North,356,3.5,3.5,58,0.00,CLR,,0.00,WeatherDisplay:10.37,2013-05-26 14:25:00,
2013-05-26 10:26:00,52.3,36.6,30.29,NNW,344,5.8,5.8,55,0.00,CLR,,0.00,WeatherDisplay:10.37,2013-05-26 14:26:00,
2013-05-26 10:27:00,52.3,37.1,30.29,North,0,2.3,2.3,56,0.00,CLR,,0.00,WeatherDisplay:10.37,2013-05-26 14:27:00,
2013-05-26 10:28:00,52.2,36.5,30.29,North,354,5.0,5.0,55,0.00,CLR,,0.00,WeatherDisplay:10.37,2013-05-26 14:28:00,
2013-05-26 10:30:00,52.3,37.5,30.29,NW,322,4.6,4.6,57,0.00,CLR,,0.00,WeatherDisplay:10.37,2013-05-26 14:30:00,
2013-05-26 10:31:00,52.3,37.5,30.29,North,0,4.6,4.6,57,0.00,CLR,,0.00,WeatherDisplay:10.37,2013-05-26 14:31:00,
2013-05-26 10:32:00,52.5,37.7,30.29,North,0,2.3,0.0,57,0.00,CLR,,0.00,WeatherDisplay:10.37,2013-05-26 14:32:00,
2013-05-26 10:33:00,52.6,37.8,30.29,North,0,6.0,6.0,57,0.00,CLR,,0.00,WeatherDisplay:10.37,2013-05-26 14:33:00,
2013-05-26 10:35:00,52.6,36.9,30.29,NNW,337,4.6,4.6,55,0.00,CLR,,0.00,WeatherDisplay:10.37,2013-05-26 14:35:00,
2013-05-26 10:36:00,52.6,37.3,30.29,WSW,243,3.5,3.5,56,0.00,CLR,,0.00,WeatherDisplay:10.37,2013-05-26 14:36:00,
2013-05-26 10:37:00,52.8,37.5,30.29,NW,309,1.1,0.0,56,0.00,CLR,,0.00,WeatherDisplay:10.37,2013-05-26 14:37:00,
2013-05-26 10:39:00,52.8,37.5,30.29,NNW,339,1.1,1.1,56,0.00,CLR,,0.00,WeatherDisplay:10.37,2013-05-26 14:39:00,
2013-05-26 10:40:00,52.8,37.5,30.29,NW,325,1.1,1.1,56,0.00,CLR,,0.00,WeatherDisplay:10.37,2013-05-26 14:40:00,
2013-05-26 10:41:00,52.8,37.5,30.29,NW,325,1.1,0.0,56,0.00,CLR,,0.00,WeatherDisplay:10.37,2013-05-26 14:41:00,
2013-05-26 10:42:00,52.8,37.5,30.29,NW,325,0.0,0.0,56,0.00,CLR,,0.00,WeatherDisplay:10.37,2013-05-26 14:42:00,
2013-05-26 10:43:00,52.8,37.5,30.29,NW,325,0.0,0.0,56,0.00,CLR,,0.00,WeatherDisplay:10.37,2013-05-26 14:43:00,
2013-05-26 10:44:00,52.9,37.6,30.29,North,352,8.1,8.1,56,0.00,CLR,,0.00,WeatherDisplay:10.37,2013-05-26 14:44:00,
2013-05-26 10:46:00,52.9,35.7,30.29,North,0,6.9,6.9,52,0.00,CLR,,0.00,WeatherDisplay:10.37,2013-05-26 14:46:00,
2013-05-26 10:47:00,52.9,35.7,30.29,North,359,2.3,2.3,52,0.00,CLR,,0.00,WeatherDisplay:10.37,2013-05-26 14:47:00,
2013-05-26 10:48:00,53.1,35.9,30.29,NW,322,5.8,5.8,52,0.00,CLR,,0.00,WeatherDisplay:10.37,2013-05-26 14:48:00,
2013-05-26 10:49:00,53.2,36.5,30.29,NW,325,1.1,1.1,53,0.00,CLR,,0.00,WeatherDisplay:10.37,2013-05-26 14:49:00,
2013-05-26 10:51:00,53.5,36.3,30.29,NNW,336,1.1,1.1,52,0.00,CLR,,0.00,WeatherDisplay:10.37,2013-05-26 14:51:00,
2013-05-26 10:52:00,53.6,36.4,30.29,NNW,336,1.1,1.1,52,0.00,CLR,,0.00,WeatherDisplay:10.37,2013-05-26 14:52:00,
2013-05-26 10:53:00,53.8,36.1,30.29,North,0,8.1,8.1,51,0.00,CLR,,0.00,WeatherDisplay:10.37,2013-05-26 14:53:00,
2013-05-26 10:54:00,53.9,35.2,30.29,North,0,11.0,11.0,49,0.00,CLR,,0.00,WeatherDisplay:10.37,2013-05-26 14:54:00,
2013-05-26 10:56:00,53.9,33.6,30.29,NNW,344,3.5,3.5,46,0.00,CLR,,0.00,WeatherDisplay:10.37,2013-05-26 14:56:00,
2013-05-26 10:57:00,53.9,33.6,30.30,NNW,332,5.8,5.8,46,0.00,CLR,,0.00,WeatherDisplay:10.37,2013-05-26 14:57:00,
2013-05-26 10:58:00,53.9,32.5,30.30,NNW,343,5.8,5.8,44,0.00,CLR,,0.00,WeatherDisplay:10.37,2013-05-26 14:58:00,
2013-05-26 11:00:00,53.8,32.4,30.30,North,356,11.5,11.5,44,0.00,CLR,,0.00,WeatherDisplay:10.37,2013-05-26 15:00:00,
2013-05-26 11:01:00,53.6,31.6,30.30,NNW,344,10.4,10.4,43,0.00,CLR,,0.00,WeatherDisplay:10.37,2013-05-26 15:01:00,
2013-05-26 11:02:00,53.6,32.2,30.30,North,356,4.6,4.6,44,0.00,CLR,,0.00,WeatherDisplay:10.37,2013-05-26 15:02:00,
2013-05-26 11:03:00,53.6,31.0,30.30,North,0,4.6,4.6,42,0.00,CLR,,0.00,WeatherDisplay:10.37,2013-05-26 15:03:00,
2013-05-26 11:05:00,53.6,31.0,30.30,NNW,340,11.5,11.5,42,0.00,CLR,,0.00,WeatherDisplay:10.37,2013-05-26 15:05:00,
2013-05-26 11:07:00,53.9,32.5,30.30,North,354,2.3,2.3,44,0.00,CLR,,0.00,WeatherDisplay:10.37,2013-05-26 15:07:00,
2013-05-26 11:08:00,53.9,31.9,30.30,NW,319,1.1,0.0,43,0.00,CLR,,0.00,WeatherDisplay:10.37,2013-05-26 15:08:00,
2013-05-26 11:11:00,54.1,32.6,30.30,NW,319,4.6,4.6,44,0.00,CLR,,0.00,WeatherDisplay:10.37,2013-05-26 15:11:00,
2013-05-26 11:12:00,54.1,32.6,30.30,NNW,339,11.5,11.5,44,0.00,CLR,,0.00,WeatherDisplay:10.37,2013-05-26 15:12:00,
2013-05-26 11:13:00,54.1,31.5,30.30,NNW,343,11.5,11.5,42,0.00,CLR,,0.00,WeatherDisplay:10.37,2013-05-26 15:13:00,
2013-05-26 11:16:00,54.2,32.2,30.30,NNW,342,10.4,10.4,43,0.00,CLR,,0.00,WeatherDisplay:10.37,2013-05-26 15:16:00,
2013-05-26 11:18:00,54.2,31.6,30.30,North,357,12.0,12.0,42,0.00,CLR,,0.00,WeatherDisplay:10.37,2013-05-26 15:18:00,
2013-05-26 11:19:00,54.2,31.0,30.30,North,349,11.5,11.5,41,0.00,CLR,,0.00,WeatherDisplay:10.37,2013-05-26 15:19:00,
2013-05-26 11:21:00,54.1,32.1,30.30,North,354,12.7,12.7,43,0.00,CLR,,0.00,WeatherDisplay:10.37,2013-05-26 15:21:00,
2013-05-26 11:23:00,54.1,30.9,30.30,North,349,9.0,9.0,41,0.00,CLR,,0.00,WeatherDisplay:10.37,2013-05-26 15:23:00,
2013-05-26 11:25:00,54.1,30.3,30.30,NNW,336,11.5,11.5,40,0.00,CLR,,0.00,WeatherDisplay:10.37,2013-05-26 15:25:00,
2013-05-26 11:26:00,54.1,30.3,30.30,North,354,5.8,5.8,40,0.00,CLR,,0.00,WeatherDisplay:10.37,2013-05-26 15:26:00,
2013-05-26 11:28:00,54.5,32.4,30.30,North,352,2.0,2.0,43,0.00,CLR,,0.00,WeatherDisplay:10.37,2013-05-26 15:28:00,
2013-05-26 11:29:00,54.5,30.6,30.30,North,7,11.5,11.5,40,0.00,CLR,,0.00,WeatherDisplay:10.37,2013-05-26 15:29:00,
2013-05-26 11:30:00,54.5,30.0,30.30,NNW,328,8.1,8.1,39,0.00,CLR,,0.00,WeatherDisplay:10.37,2013-05-26 15:30:00,
2013-05-26 11:31:00,54.4,30.6,30.30,NNW,343,8.1,8.1,40,0.00,CLR,,0.00,WeatherDisplay:10.37,2013-05-26 15:31:00,
2013-05-26 11:33:00,54.5,30.0,30.30,North,354,4.6,4.6,39,0.00,CLR,,0.00,WeatherDisplay:10.37,2013-05-26 15:33:00,
2013-05-26 11:34:00,54.4,29.3,30.30,North,356,11.5,11.5,38,0.00,CLR,,0.00,WeatherDisplay:10.37,2013-05-26 15:34:00,
2013-05-26 11:36:00,54.2,29.1,30.30,NW,326,9.2,9.2,38,0.00,CLR,,0.00,WeatherDisplay:10.37,2013-05-26 15:36:00,
2013-05-26 11:38:00,54.5,31.3,30.30,WNW,292,3.5,3.5,41,0.00,CLR,,0.00,WeatherDisplay:10.37,2013-05-26 15:38:00,
2013-05-26 11:39:00,54.7,30.2,30.30,NNW,335,3.5,3.5,39,0.00,CLR,,0.00,WeatherDisplay:10.37,2013-05-26 15:39:00,
2013-05-26 11:41:00,54.8,30.9,30.30,North,357,11.5,11.5,40,0.00,CLR,,0.00,WeatherDisplay:10.37,2013-05-26 15:41:00,
2013-05-26 11:43:00,54.5,28.1,30.30,North,0,13.8,13.8,36,0.00,CLR,,0.00,WeatherDisplay:10.37,2013-05-26 15:43:00,
2013-05-26 11:44:00,54.2,28.5,30.30,NNW,337,11.5,11.5,37,0.00,CLR,,0.00,WeatherDisplay:10.37,2013-05-26 15:44:00,
2013-05-26 11:46:00,54.4,29.9,30.30,North,356,9.0,9.0,39,0.00,CLR,,0.00,WeatherDisplay:10.37,2013-05-26 15:46:00,
2013-05-26 11:47:00,54.4,29.3,30.30,NW,319,9.2,9.2,38,0.00,CLR,,0.00,WeatherDisplay:10.37,2013-05-26 15:47:00,
2013-05-26 11:48:00,54.4,29.3,30.30,North,0,11.5,11.5,38,0.00,CLR,,0.00,WeatherDisplay:10.37,2013-05-26 15:48:00,
2013-05-26 11:49:00,54.4,29.3,30.30,North,7,11.5,11.5,38,0.00,CLR,,0.00,WeatherDisplay:10.37,2013-05-26 15:49:00,
2013-05-26 11:51:00,54.5,28.7,30.30,North,0,11.5,11.5,37,0.00,CLR,,0.00,WeatherDisplay:10.37,2013-05-26 15:51:00,
2013-05-26 11:52:00,54.5,27.4,30.30,North,354,9.2,9.2,35,0.00,CLR,,0.00,WeatherDisplay:10.37,2013-05-26 15:52:00,
2013-05-26 11:53:00,54.5,28.7,30.30,North,1,9.0,9.0,37,0.00,CLR,,0.00,WeatherDisplay:10.37,2013-05-26 15:53:00,
2013-05-26 11:54:00,54.5,28.7,30.30,North,1,11.5,11.5,37,0.00,CLR,,0.00,WeatherDisplay:10.37,2013-05-26 15:54:00,
2013-05-26 11:56:00,55.0,28.5,30.30,North,8,8.1,8.1,36,0.00,CLR,,0.00,WeatherDisplay:10.37,2013-05-26 15:56:00,
2013-05-26 11:57:00,55.1,29.9,30.30,NNW,330,1.0,1.0,38,0.00,CLR,,0.00,WeatherDisplay:10.37,2013-05-26 15:57:00,
2013-05-26 11:59:00,55.6,30.4,30.30,North,349,10.4,10.4,38,0.00,CLR,,0.00,WeatherDisplay:10.37,2013-05-26 15:59:00,
2013-05-26 12:01:00,55.9,30.6,30.30,North,0,5.0,5.0,38,0.00,CLR,,0.00,WeatherDisplay:10.37,2013-05-26 16:01:00,
2013-05-26 12:02:00,55.9,29.3,30.30,North,359,4.6,4.6,36,0.00,CLR,,0.00,WeatherDisplay:10.37,2013-05-26 16:02:00,
2013-05-26 12:04:00,55.9,29.3,30.30,North,0,8.1,8.1,36,0.00,CLR,,0.00,WeatherDisplay:10.37,2013-05-26 16:04:00,
2013-05-26 12:06:00,55.4,28.9,30.30,NW,323,5.8,5.8,36,0.00,CLR,,0.00,WeatherDisplay:10.37,2013-05-26 16:06:00,
2013-05-26 12:08:00,55.4,29.5,30.30,North,3,10.4,10.4,37,0.00,CLR,,0.00,WeatherDisplay:10.37,2013-05-26 16:08:00,
2013-05-26 12:09:00,55.4,29.5,30.30,North,354,6.9,6.9,37,0.00,CLR,,0.00,WeatherDisplay:10.37,2013-05-26 16:09:00,
2013-05-26 12:10:00,55.6,31.0,30.30,North,0,5.8,5.8,39,0.00,CLR,,0.00,WeatherDisplay:10.37,2013-05-26 16:10:00,
2013-05-26 12:12:00,55.4,29.5,30.30,North,359,3.5,3.5,37,0.00,CLR,,0.00,WeatherDisplay:10.37,2013-05-26 16:12:00,
2013-05-26 12:13:00,55.4,28.9,30.30,NW,315,12.7,12.7,36,0.00,CLR,,0.00,WeatherDisplay:10.37,2013-05-26 16:13:00,
2013-05-26 12:14:00,55.6,30.4,30.30,North,353,3.5,3.5,38,0.00,CLR,,0.00,WeatherDisplay:10.37,2013-05-26 16:14:00,
2013-05-26 12:16:00,55.6,29.7,30.30,North,3,6.9,6.9,37,0.00,CLR,,0.00,WeatherDisplay:10.37,2013-05-26 16:16:00,
2013-05-26 12:17:00,55.6,29.0,30.30,North,0,4.6,4.6,36,0.00,CLR,,0.00,WeatherDisplay:10.37,2013-05-26 16:17:00,
2013-05-26 12:18:00,55.6,29.0,30.30,WNW,292,11.5,11.5,36,0.00,CLR,,0.00,WeatherDisplay:10.37,2013-05-26 16:18:00,
2013-05-26 12:19:00,55.6,29.7,30.30,NNW,330,11.5,11.5,37,0.00,CLR,,0.00,WeatherDisplay:10.37,2013-05-26 16:19:00,
2013-05-26 12:20:00,55.7,29.8,30.30,NNW,330,11.5,11.5,37,0.00,CLR,,0.00,WeatherDisplay:10.37,2013-05-26 16:20:00,
2013-05-26 12:21:00,55.9,30.6,30.29,North,349,5.0,5.0,38,0.00,CLR,,0.00,WeatherDisplay:10.37,2013-05-26 16:21:00,
2013-05-26 12:22:00,55.9,30.6,30.30,North,0,7.0,7.0,38,0.00,CLR,,0.00,WeatherDisplay:10.37,2013-05-26 16:22:00,
2013-05-26 12:23:00,56.0,30.1,30.30,WNW,289,8.1,8.1,37,0.00,CLR,,0.00,WeatherDisplay:10.37,2013-05-26 16:23:00,
2013-05-26 12:25:00,56.2,29.6,30.30,NW,309,3.5,3.5,36,0.00,CLR,,0.00,WeatherDisplay:10.37,2013-05-26 16:25:00,
2013-05-26 12:26:00,56.3,29.7,30.30,NW,322,8.1,8.1,36,0.00,CLR,,0.00,WeatherDisplay:10.37,2013-05-26 16:26:00,
2013-05-26 12:27:00,56.3,31.0,30.30,NNW,340,5.8,5.8,38,0.00,CLR,,0.00,WeatherDisplay:10.37,2013-05-26 16:27:00,
2013-05-26 12:28:00,56.0,28.7,30.30,North,0,10.4,10.4,35,0.00,CLR,,0.00,WeatherDisplay:10.37,2013-05-26 16:28:00,
2013-05-26 12:30:00,56.0,29.4,30.30,NNW,332,4.6,4.6,36,0.00,CLR,,0.00,WeatherDisplay:10.37,2013-05-26 16:30:00,
2013-05-26 12:32:00,56.0,30.7,30.30,NW,313,5.8,5.8,38,0.00,CLR,,0.00,WeatherDisplay:10.37,2013-05-26 16:32:00,
2013-05-26 12:33:00,56.0,30.1,30.30,NNW,347,3.5,3.5,37,0.00,CLR,,0.00,WeatherDisplay:10.37,2013-05-26 16:33:00,
2013-05-26 12:34:00,56.2,30.9,30.30,NW,325,2.3,2.3,38,0.00,CLR,,0.00,WeatherDisplay:10.37,2013-05-26 16:34:00,
2013-05-26 12:35:00,56.3,31.0,30.30,North,1,11.5,11.5,38,0.00,CLR,,0.00,WeatherDisplay:10.37,2013-05-26 16:35:00,
2013-05-26 12:37:00,56.3,30.3,30.29,North,7,8.1,8.1,37,0.00,CLR,,0.00,WeatherDisplay:10.37,2013-05-26 16:37:00,
2013-05-26 12:38:00,56.3,30.3,30.29,NW,319,10.4,10.4,37,0.00,CLR,,0.00,WeatherDisplay:10.37,2013-05-26 16:38:00,
2013-05-26 12:39:00,56.2,30.2,30.29,North,359,11.5,11.5,37,0.00,CLR,,0.00,WeatherDisplay:10.37,2013-05-26 16:39:00,
2013-05-26 12:40:00,56.0,30.1,30.29,NNW,332,11.5,11.5,37,0.00,CLR,,0.00,WeatherDisplay:10.37,2013-05-26 16:40:00,
2013-05-26 12:42:00,56.5,31.2,30.29,NW,313,4.6,4.6,38,0.00,CLR,,0.00,WeatherDisplay:10.37,2013-05-26 16:42:00,
2013-05-26 12:43:00,56.5,30.5,30.29,NW,322,5.0,5.0,37,0.00,CLR,,0.00,WeatherDisplay:10.37,2013-05-26 16:43:00,
2013-05-26 12:44:00,56.5,29.8,30.29,NNW,330,5.8,5.8,36,0.00,CLR,,0.00,WeatherDisplay:10.37,2013-05-26 16:44:00,
2013-05-26 12:45:00,56.7,31.4,30.29,NW,326,10.0,10.0,38,0.00,CLR,,0.00,WeatherDisplay:10.37,2013-05-26 16:45:00,
2013-05-26 12:46:00,56.7,31.4,30.29,North,6,11.5,11.5,38,0.00,CLR,,0.00,WeatherDisplay:10.37,2013-05-26 16:46:00,
2013-05-26 12:47:00,56.7,31.4,30.29,North,356,11.5,11.5,38,0.00,CLR,,0.00,WeatherDisplay:10.37,2013-05-26 16:47:00,
2013-05-26 12:48:00,56.7,31.4,30.29,NW,326,6.9,6.9,38,0.00,CLR,,0.00,WeatherDisplay:10.37,2013-05-26 16:48:00,
2013-05-26 12:49:00,56.7,31.4,30.29,WNW,291,3.5,3.5,38,0.00,CLR,,0.00,WeatherDisplay:10.37,2013-05-26 16:49:00,
2013-05-26 12:51:00,56.9,31.5,30.29,WSW,240,5.8,5.8,38,0.00,CLR,,0.00,WeatherDisplay:10.37,2013-05-26 16:51:00,
2013-05-26 12:52:00,56.9,30.2,30.29,West,267,10.4,0.0,36,0.00,CLR,,0.00,WeatherDisplay:10.37,2013-05-26 16:52:00,
2013-05-26 12:53:00,56.9,30.2,30.29,NNW,328,2.3,2.3,36,0.00,CLR,,0.00,WeatherDisplay:10.37,2013-05-26 16:53:00,
2013-05-26 12:55:00,57.0,31.6,30.29,NNW,329,3.5,3.5,38,0.00,CLR,,0.00,WeatherDisplay:10.37,2013-05-26 16:55:00,
2013-05-26 12:56:00,57.0,31.6,30.29,NNW,335,5.8,5.8,38,0.00,CLR,,0.00,WeatherDisplay:10.37,2013-05-26 16:56:00,
2013-05-26 12:57:00,57.3,33.8,30.29,North,356,10.0,10.0,41,0.00,CLR,,0.00,WeatherDisplay:10.37,2013-05-26 16:57:00,
2013-05-26 12:58:00,57.5,32.1,30.29,WNW,284,11.5,11.5,38,0.00,CLR,,0.00,WeatherDisplay:10.37,2013-05-26 16:58:00,
2013-05-26 13:00:00,57.6,30.8,30.29,NNW,332,10.4,10.4,36,0.00,CLR,,0.00,WeatherDisplay:10.37,2013-05-26 17:00:00,
2013-05-26 13:01:00,57.6,31.5,30.29,WSW,240,10.4,10.4,37,0.00,CLR,,0.00,WeatherDisplay:10.37,2013-05-26 17:01:00,
2013-05-26 13:02:00,57.6,30.8,30.29,NW,306,5.8,5.8,36,0.00,CLR,,0.00,WeatherDisplay:10.37,2013-05-26 17:02:00,
2013-05-26 13:04:00,57.3,29.9,30.29,NNW,340,10.4,10.4,35,0.00,CLR,,0.00,WeatherDisplay:10.37,2013-05-26 17:04:00,
2013-05-26 13:05:00,57.2,30.5,30.29,WSW,257,10.4,10.4,36,0.00,CLR,,0.00,WeatherDisplay:10.37,2013-05-26 17:05:00,
2013-05-26 13:06:00,57.2,31.8,30.29,WSW,258,3.5,3.5,38,0.00,CLR,,0.00,WeatherDisplay:10.37,2013-05-26 17:06:00,
2013-05-26 13:07:00,57.3,31.9,30.29,West,263,6.0,6.0,38,0.00,CLR,,0.00,WeatherDisplay:10.37,2013-05-26 17:07:00,
2013-05-26 13:08:00,57.3,30.5,30.29,West,260,8.1,8.1,36,0.00,CLR,,0.00,WeatherDisplay:10.37,2013-05-26 17:08:00,
2013-05-26 13:09:00,57.5,30.7,30.29,West,268,8.1,8.1,36,0.00,CLR,,0.00,WeatherDisplay:10.37,2013-05-26 17:09:00,
2013-05-26 13:10:00,57.5,31.4,30.30,NW,326,11.5,11.5,37,0.00,CLR,,0.00,WeatherDisplay:10.37,2013-05-26 17:10:00,
2013-05-26 13:11:00,57.2,30.5,30.30,NNW,329,13.0,13.0,36,0.00,CLR,,0.00,WeatherDisplay:10.37,2013-05-26 17:11:00,
2013-05-26 13:12:00,57.0,30.3,30.30,WNW,289,12.7,12.7,36,0.00,CLR,,0.00,WeatherDisplay:10.37,2013-05-26 17:12:00,
2013-05-26 13:13:00,56.9,30.9,30.29,North,357,3.5,3.5,37,0.00,CLR,,0.00,WeatherDisplay:10.37,2013-05-26 17:13:00,
2013-05-26 13:14:00,56.9,31.5,30.29,North,359,11.5,11.5,38,0.00,CLR,,0.00,WeatherDisplay:10.37,2013-05-26 17:14:00,
2013-05-26 13:15:00,56.9,31.5,30.29,North,352,11.5,11.5,38,0.00,CLR,,0.00,WeatherDisplay:10.37,2013-05-26 17:15:00,
2013-05-26 13:16:00,56.7,31.4,30.29,North,359,10.4,10.4,38,0.00,CLR,,0.00,WeatherDisplay:10.37,2013-05-26 17:16:00,
2013-05-26 13:17:00,56.7,30.0,30.29,NW,322,8.1,8.1,36,0.00,CLR,,0.00,WeatherDisplay:10.37,2013-05-26 17:17:00,
2013-05-26 13:19:00,56.5,30.5,30.29,North,359,11.5,11.5,37,0.00,CLR,,0.00,WeatherDisplay:10.37,2013-05-26 17:19:00,
2013-05-26 13:20:00,56.6,31.3,30.29,NNW,329,8.1,8.1,38,0.00,CLR,,0.00,WeatherDisplay:10.37,2013-05-26 17:20:00,
2013-05-26 13:21:00,56.6,31.3,30.29,North,352,12.7,12.7,38,0.00,CLR,,0.00,WeatherDisplay:10.37,2013-05-26 17:21:00,
2013-05-26 13:22:00,56.6,31.3,30.29,NNW,337,11.5,11.5,38,0.00,CLR,,0.00,WeatherDisplay:10.37,2013-05-26 17:22:00,
2013-05-26 13:24:00,56.9,30.2,30.29,West,270,6.0,6.0,36,0.00,CLR,,0.00,WeatherDisplay:10.37,2013-05-26 17:24:00,
2013-05-26 13:26:00,57.2,31.1,30.29,WSW,244,9.0,9.0,37,0.00,CLR,,0.00,WeatherDisplay:10.37,2013-05-26 17:26:00,
2013-05-26 13:27:00,57.5,30.7,30.29,WNW,289,9.2,9.2,36,0.00,CLR,,0.00,WeatherDisplay:10.37,2013-05-26 17:27:00,
2013-05-26 13:28:00,57.5,30.7,30.29,WSW,243,11.0,11.0,36,0.00,CLR,,0.00,WeatherDisplay:10.37,2013-05-26 17:28:00,
2013-05-26 13:29:00,57.5,30.7,30.29,WNW,282,9.2,9.2,36,0.00,CLR,,0.00,WeatherDisplay:10.37,2013-05-26 17:29:00,
2013-05-26 13:30:00,57.5,30.7,30.29,WNW,282,5.8,5.8,36,0.00,CLR,,0.00,WeatherDisplay:10.37,2013-05-26 17:30:00,
2013-05-26 13:31:00,57.5,31.4,30.29,WNW,299,3.5,3.5,37,0.00,CLR,,0.00,WeatherDisplay:10.37,2013-05-26 17:31:00,
2013-05-26 13:32:00,57.8,31.7,30.29,WNW,282,3.5,0.0,37,0.00,CLR,,0.00,WeatherDisplay:10.37,2013-05-26 17:32:00,
2013-05-26 13:33:00,58.0,31.8,30.29,WNW,282,1.1,0.0,37,0.00,CLR,,0.00,WeatherDisplay:10.37,2013-05-26 17:33:00,
2013-05-26 13:34:00,58.1,31.9,30.29,WNW,296,3.5,3.5,37,0.00,CLR,,0.00,WeatherDisplay:10.37,2013-05-26 17:34:00,
2013-05-26 13:36:00,58.1,31.3,30.29,WNW,284,6.9,6.9,36,0.00,CLR,,0.00,WeatherDisplay:10.37,2013-05-26 17:36:00,
2013-05-26 13:38:00,58.1,31.3,30.29,NW,305,3.5,3.5,36,0.00,CLR,,0.00,WeatherDisplay:10.37,2013-05-26 17:38:00,
2013-05-26 13:40:00,58.0,30.5,30.28,NNW,336,5.8,5.8,35,0.00,CLR,,0.00,WeatherDisplay:10.37,2013-05-26 17:40:00,
2013-05-26 13:41:00,58.3,32.1,30.28,NNW,336,0.0,0.0,37,0.00,CLR,,0.00,WeatherDisplay:10.37,2013-05-26 17:41:00,
2013-05-26 13:43:00,58.3,31.4,30.28,NNW,344,8.1,8.1,36,0.00,CLR,,0.00,WeatherDisplay:10.37,2013-05-26 17:43:00,
2013-05-26 13:45:00,58.4,33.5,30.28,West,271,8.1,8.1,39,0.00,CLR,,0.00,WeatherDisplay:10.37,2013-05-26 17:45:00,
2013-05-26 13:46:00,58.4,32.2,30.28,WSW,254,6.9,6.9,37,0.00,CLR,,0.00,WeatherDisplay:10.37,2013-05-26 17:46:00,
2013-05-26 13:47:00,58.4,31.5,30.28,WSW,254,3.5,3.5,36,0.00,CLR,,0.00,WeatherDisplay:10.37,2013-05-26 17:47:00,
2013-05-26 13:48:00,58.6,32.4,30.28,WSW,258,6.9,6.9,37,0.00,CLR,,0.00,WeatherDisplay:10.37,2013-05-26 17:48:00,
2013-05-26 13:50:00,58.7,31.8,30.28,NW,315,3.5,3.5,36,0.00,CLR,,0.00,WeatherDisplay:10.37,2013-05-26 17:50:00,
2013-05-26 13:51:00,58.4,30.8,30.27,NNW,333,6.9,6.9,35,0.00,CLR,,0.00,WeatherDisplay:10.37,2013-05-26 17:51:00,
2013-05-26 13:52:00,58.0,30.5,30.28,NNW,339,11.5,11.5,35,0.00,CLR,,0.00,WeatherDisplay:10.37,2013-05-26 17:52:00,
2013-05-26 13:53:00,57.6,30.1,30.28,North,357,10.4,10.4,35,0.00,CLR,,0.00,WeatherDisplay:10.37,2013-05-26 17:53:00,
2013-05-26 13:54:00,57.5,30.0,30.28,NNW,340,10.4,10.4,35,0.00,CLR,,0.00,WeatherDisplay:10.37,2013-05-26 17:54:00,
2013-05-26 13:55:00,57.3,31.2,30.28,North,353,6.9,6.9,37,0.00,CLR,,0.00,WeatherDisplay:10.37,2013-05-26 17:55:00,
2013-05-26 13:56:00,57.2,30.5,30.28,NNW,335,6.9,6.9,36,0.00,CLR,,0.00,WeatherDisplay:10.37,2013-05-26 17:56:00,
2013-05-26 13:57:00,57.2,30.5,30.28,NW,318,5.8,5.8,36,0.00,CLR,,0.00,WeatherDisplay:10.37,2013-05-26 17:57:00,
2013-05-26 13:58:00,57.3,31.2,30.28,NW,318,5.8,5.8,37,0.00,CLR,,0.00,WeatherDisplay:10.37,2013-05-26 17:58:00,
2013-05-26 13:59:00,57.3,31.9,30.28,North,349,11.5,11.5,38,0.00,CLR,,0.00,WeatherDisplay:10.37,2013-05-26 17:59:00,
2013-05-26 14:00:00,57.5,31.4,30.28,West,275,8.1,8.1,37,0.00,CLR,,0.00,WeatherDisplay:10.37,2013-05-26 18:00:00,
2013-05-26 14:01:00,57.6,31.5,30.28,WSW,250,8.1,8.1,37,0.00,CLR,,0.00,WeatherDisplay:10.37,2013-05-26 18:01:00,
2013-05-26 14:03:00,58.0,31.8,30.28,SW,233,8.1,8.1,37,0.00,CLR,,0.00,WeatherDisplay:10.37,2013-05-26 18:03:00,
2013-05-26 14:04:00,58.0,31.8,30.28,WSW,253,8.1,8.1,37,0.00,CLR,,0.00,WeatherDisplay:10.37,2013-05-26 18:04:00,
2013-05-26 14:06:00,58.3,32.8,30.27,West,278,4.6,4.6,38,0.00,CLR,,0.00,WeatherDisplay:10.37,2013-05-26 18:06:00,
2013-05-26 14:07:00,58.4,32.2,30.27,West,274,6.0,6.0,37,0.00,CLR,,0.00,WeatherDisplay:10.37,2013-05-26 18:07:00,
2013-05-26 14:08:00,58.7,32.5,30.27,WSW,256,5.8,5.8,37,0.00,CLR,,0.00,WeatherDisplay:10.37,2013-05-26 18:08:00,
2013-05-26 14:09:00,58.6,32.4,30.27,NW,320,9.2,9.2,37,0.00,CLR,,0.00,WeatherDisplay:10.37,2013-05-26 18:09:00,
2013-05-26 14:11:00,58.4,30.8,30.28,West,264,6.0,6.0,35,0.00,CLR,,0.00,WeatherDisplay:10.37,2013-05-26 18:11:00,
2013-05-26 14:12:00,58.4,30.8,30.28,North,352,7.0,7.0,35,0.00,CLR,,0.00,WeatherDisplay:10.37,2013-05-26 18:12:00,
2013-05-26 14:13:00,58.4,32.2,30.28,NNW,332,8.1,8.1,37,0.00,CLR,,0.00,WeatherDisplay:10.37,2013-05-26 18:13:00,
2013-05-26 14:14:00,58.4,32.9,30.28,NNW,347,3.5,3.5,38,0.00,CLR,,0.00,WeatherDisplay:10.37,2013-05-26 18:14:00,
2013-05-26 14:15:00,58.4,32.9,30.28,North,357,6.0,6.0,38,0.00,CLR,,0.00,WeatherDisplay:10.37,2013-05-26 18:15:00,
2013-05-26 14:16:00,58.3,31.4,30.28,WNW,298,5.8,5.8,36,0.00,CLR,,0.00,WeatherDisplay:10.37,2013-05-26 18:16:00,
2013-05-26 14:17:00,58.3,32.1,30.28,NW,304,3.5,3.5,37,0.00,CLR,,0.00,WeatherDisplay:10.37,2013-05-26 18:17:00,
2013-05-26 14:18:00,58.4,31.5,30.28,West,275,4.6,4.6,36,0.00,CLR,,0.00,WeatherDisplay:10.37,2013-05-26 18:18:00,
2013-05-26 14:19:00,58.4,30.8,30.27,West,272,3.5,3.5,35,0.00,CLR,,0.00,WeatherDisplay:10.37,2013-05-26 18:19:00,
2013-05-26 14:20:00,58.4,30.8,30.28,West,260,5.8,5.8,35,0.00,CLR,,0.00,WeatherDisplay:10.37,2013-05-26 18:20:00,
2013-05-26 14:21:00,58.4,31.5,30.28,West,281,6.9,6.9,36,0.00,CLR,,0.00,WeatherDisplay:10.37,2013-05-26 18:21:00,
2013-05-26 14:23:00,58.4,30.8,30.27,North,357,5.8,5.8,35,0.00,CLR,,0.00,WeatherDisplay:10.37,2013-05-26 18:23:00,
2013-05-26 14:25:00,58.6,32.4,30.27,NW,323,6.9,6.9,37,0.00,CLR,,0.00,WeatherDisplay:10.37,2013-05-26 18:25:00,
2013-05-26 14:26:00,58.7,33.1,30.27,West,281,5.8,5.8,38,0.00,CLR,,0.00,WeatherDisplay:10.37,2013-05-26 18:26:00,
2013-05-26 14:28:00,58.9,32.0,30.27,West,261,6.9,6.9,36,0.00,CLR,,0.00,WeatherDisplay:10.37,2013-05-26 18:28:00,
2013-05-26 14:30:00,58.7,31.8,30.27,WNW,298,11.5,11.5,36,0.00,CLR,,0.00,WeatherDisplay:10.37,2013-05-26 18:30:00,
2013-05-26 14:32:00,58.7,33.1,30.27,NW,319,3.5,3.5,38,0.00,CLR,,0.00,WeatherDisplay:10.37,2013-05-26 18:32:00,
2013-05-26 14:33:00,58.4,31.5,30.27,North,359,11.5,11.5,36,0.00,CLR,,0.00,WeatherDisplay:10.37,2013-05-26 18:33:00,
2013-05-26 14:35:00,58.1,31.3,30.27,North,349,6.9,6.9,36,0.00,CLR,,0.00,WeatherDisplay:10.37,2013-05-26 18:35:00,
2013-05-26 14:37:00,58.1,30.6,30.27,NNW,329,10.0,10.0,35,0.00,CLR,,0.00,WeatherDisplay:10.37,2013-05-26 18:37:00,
2013-05-26 14:39:00,58.0,31.2,30.27,NW,313,10.4,10.4,36,0.00,CLR,,0.00,WeatherDisplay:10.37,2013-05-26 18:39:00,
2013-05-26 14:40:00,58.0,31.2,30.27,West,281,5.8,5.8,36,0.00,CLR,,0.00,WeatherDisplay:10.37,2013-05-26 18:40:00,
2013-05-26 14:42:00,58.3,30.7,30.27,SW,230,3.5,3.5,35,0.00,CLR,,0.00,WeatherDisplay:10.37,2013-05-26 18:42:00,
2013-05-26 14:44:00,58.6,32.4,30.27,WNW,301,2.3,2.3,37,0.00,CLR,,0.00,WeatherDisplay:10.37,2013-05-26 18:44:00,
2013-05-26 14:45:00,58.9,32.7,30.27,North,359,6.0,6.0,37,0.00,CLR,,0.00,WeatherDisplay:10.37,2013-05-26 18:45:00,
2013-05-26 14:47:00,59.2,31.5,30.27,West,274,5.8,5.8,35,0.00,CLR,,0.00,WeatherDisplay:10.37,2013-05-26 18:47:00,
2013-05-26 14:49:00,59.5,31.8,30.27,NW,319,5.8,5.8,35,0.00,CLR,,0.00,WeatherDisplay:10.37,2013-05-26 18:49:00,
2013-05-26 14:50:00,59.6,32.6,30.27,WSW,239,11.0,11.0,36,0.00,CLR,,0.00,WeatherDisplay:10.37,2013-05-26 18:50:00,
2013-05-26 14:52:00,59.3,31.6,30.27,WSW,248,6.9,6.9,35,0.00,CLR,,0.00,WeatherDisplay:10.37,2013-05-26 18:52:00,
2013-05-26 14:54:00,59.3,32.3,30.27,SW,215,5.8,5.8,36,0.00,CLR,,0.00,WeatherDisplay:10.37,2013-05-26 18:54:00,
2013-05-26 14:55:00,59.3,31.6,30.27,West,260,10.4,10.4,35,0.00,CLR,,0.00,WeatherDisplay:10.37,2013-05-26 18:55:00,
2013-05-26 14:56:00,59.2,32.9,30.27,NW,309,5.8,5.8,37,0.00,CLR,,0.00,WeatherDisplay:10.37,2013-05-26 18:56:00,
2013-05-26 14:57:00,59.2,31.5,30.27,NNW,336,10.4,10.4,35,0.00,CLR,,0.00,WeatherDisplay:10.37,2013-05-26 18:57:00,
2013-05-26 15:00:00,59.0,32.1,30.28,WSW,247,3.5,3.5,36,0.00,CLR,,0.00,WeatherDisplay:10.37,2013-05-26 19:00:00,
2013-05-26 15:01:00,59.0,31.4,30.27,NNW,344,3.5,3.5,35,0.00,CLR,,0.00,WeatherDisplay:10.37,2013-05-26 19:01:00,
2013-05-26 15:03:00,59.2,31.5,30.28,SW,232,3.5,3.5,35,0.00,CLR,,0.00,WeatherDisplay:10.37,2013-05-26 19:03:00,
2013-05-26 15:05:00,59.5,32.5,30.27,NW,315,4.6,4.6,36,0.00,CLR,,0.00,WeatherDisplay:10.37,2013-05-26 19:05:00,
2013-05-26 15:06:00,59.5,33.2,30.27,WSW,256,5.8,5.8,37,0.00,CLR,,0.00,WeatherDisplay:10.37,2013-05-26 19:06:00,
2013-05-26 15:08:00,59.5,31.8,30.27,NNW,347,8.1,8.1,35,0.00,CLR,,0.00,WeatherDisplay:10.37,2013-05-26 19:08:00,
2013-05-26 15:10:00,59.2,31.5,30.27,NNW,333,11.5,11.5,35,0.00,CLR,,0.00,WeatherDisplay:10.37,2013-05-26 19:10:00,
2013-05-26 15:11:00,59.3,31.6,30.27,NNW,332,4.6,4.6,35,0.00,CLR,,0.00,WeatherDisplay:10.37,2013-05-26 19:11:00,
2013-05-26 15:13:00,59.5,32.5,30.27,NW,316,6.9,6.9,36,0.00,CLR,,0.00,WeatherDisplay:10.37,2013-05-26 19:13:00,
2013-05-26 15:15:00,59.5,32.5,30.27,WNW,282,3.5,3.5,36,0.00,CLR,,0.00,WeatherDisplay:10.37,2013-05-26 19:15:00,
2013-05-26 15:16:00,59.5,32.5,30.27,SW,219,3.5,3.5,36,0.00,CLR,,0.00,WeatherDisplay:10.37,2013-05-26 19:16:00,
2013-05-26 15:18:00,59.6,31.9,30.26,NW,315,4.6,4.6,35,0.00,CLR,,0.00,WeatherDisplay:10.37,2013-05-26 19:18:00,
2013-05-26 15:20:00,59.0,31.4,30.27,West,271,10.4,10.4,35,0.00,CLR,,0.00,WeatherDisplay:10.37,2013-05-26 19:20:00,
2013-05-26 15:21:00,59.2,32.2,30.27,West,264,6.9,6.9,36,0.00,CLR,,0.00,WeatherDisplay:10.37,2013-05-26 19:21:00,
2013-05-26 15:22:00,59.2,32.2,30.27,WSW,258,6.9,6.9,36,0.00,CLR,,0.00,WeatherDisplay:10.37,2013-05-26 19:22:00,
2013-05-26 15:23:00,59.5,33.2,30.27,NNW,339,4.0,4.8,37,0.00,CLR,,0.00,WeatherDisplay:10.37,2013-05-26 19:23:00,
2013-05-26 15:25:00,59.6,33.9,30.26,NNW,347,6.9,6.9,38,0.00,CLR,,0.00,WeatherDisplay:10.37,2013-05-26 19:25:00,
2013-05-26 15:26:00,59.8,33.5,30.26,NNW,347,4.6,4.6,37,0.00,CLR,,0.00,WeatherDisplay:10.37,2013-05-26 19:26:00,
2013-05-26 15:27:00,59.9,34.2,30.26,WNW,291,1.1,1.1,38,0.00,CLR,,0.00,WeatherDisplay:10.37,2013-05-26 19:27:00,
2013-05-26 15:28:00,59.9,32.9,30.26,WNW,292,6.9,6.9,36,0.00,CLR,,0.00,WeatherDisplay:10.37,2013-05-26 19:28:00,
2013-05-26 15:31:00,59.6,29.7,30.26,NNW,343,4.6,4.6,32,0.00,CLR,,0.00,WeatherDisplay:10.37,2013-05-26 19:31:00,
2013-05-26 15:32:00,59.6,30.4,30.26,North,354,3.5,3.5,33,0.00,CLR,,0.00,WeatherDisplay:10.37,2013-05-26 19:32:00,
2013-05-26 15:34:00,59.6,31.2,30.26,North,356,2.3,2.3,34,0.00,CLR,,0.00,WeatherDisplay:10.37,2013-05-26 19:34:00,